Wetterdaten: Freitag, 15.01.2016
Datum Zeit Temp. Aussen Temp. o. S. +5cm Feuchte Auss BlattFeu 1 Luftdruck Regen Sonnenschein Regendauer Solar Windben Empfang
15.01.2016 00:00 3,1 C 3,3 C 1,7 C 90 % 0 lf 1000,3 hPa 0,0 l/m 0 min 0 min 0 W/m 41,8 km/h (6 Bft) 100,00 %
15.01.2016 00:02 3,1 C 3,3 C 1,7 C 90 % 0 lf 1000,3 hPa 0,0 l/m 0 min 0 min 0 W/m 50,2 km/h (7 Bft) 94,87 %
15.01.2016 00:04 3,1 C 3,3 C 1,7 C 90 % 0 lf 1000,2 hPa 0,0 l/m 0 min 0 min 0 W/m 46,0 km/h (6 Bft) 100,00 %
15.01.2016 00:06 3,1 C 3,3 C 2,2 C 90 % 0 lf 1000,3 hPa 0,0 l/m 0 min 0 min 0 W/m 43,9 km/h (6 Bft) 97,87 %
15.01.2016 00:08 3,1 C 3,3 C 2,2 C 90 % 0 lf 1000,2 hPa 0,0 l/m 0 min 0 min 0 W/m 43,9 km/h (6 Bft) 100,00 %
15.01.2016 00:10 3,1 C 3,3 C 2,2 C 90 % 0 lf 1000,1 hPa 0,0 l/m 0 min 0 min 0 W/m 52,3 km/h (7 Bft) 100,00 %
15.01.2016 00:12 3,1 C 3,3 C 2,2 C 89 % 0 lf 1000,2 hPa 0,0 l/m 0 min 0 min 0 W/m 46,0 km/h (6 Bft) 100,00 %
15.01.2016 00:14 3,1 C 3,3 C 2,2 C 89 % 0 lf 1000,2 hPa 0,0 l/m 0 min 0 min 0 W/m 37,7 km/h (5 Bft) 97,87 %
15.01.2016 00:16 3,1 C 3,3 C 2,2 C 89 % 0 lf 1000,2 hPa 0,0 l/m 0 min 0 min 0 W/m 33,5 km/h (5 Bft) 100,00 %
15.01.2016 00:18 3,1 C 3,3 C 2,2 C 89 % 0 lf 1000,1 hPa 0,0 l/m 0 min 0 min 0 W/m 37,7 km/h (5 Bft) 95,74 %
15.01.2016 00:20 3,1 C 3,3 C 2,2 C 89 % 0 lf 1000,0 hPa 0,0 l/m 0 min 0 min 0 W/m 56,5 km/h (7 Bft) 97,87 %
15.01.2016 00:22 3,1 C 3,3 C 2,2 C 89 % 0 lf 1000,1 hPa 0,0 l/m 0 min 0 min 0 W/m 39,7 km/h (6 Bft) 100,00 %
15.01.2016 00:24 3,1 C 3,3 C 2,2 C 88 % 0 lf 1000,1 hPa 0,0 l/m 0 min 0 min 0 W/m 35,6 km/h (5 Bft) 100,00 %
15.01.2016 00:26 3,1 C 3,3 C 2,2 C 88 % 0 lf 1000,0 hPa 0,0 l/m 0 min 0 min 0 W/m 33,5 km/h (5 Bft) 97,87 %
15.01.2016 00:28 3,1 C 3,3 C 2,2 C 88 % 0 lf 1000,1 hPa 0,0 l/m 0 min 0 min 0 W/m 35,6 km/h (5 Bft) 97,83 %
15.01.2016 00:30 3,1 C 3,3 C 2,2 C 88 % 0 lf 1000,0 hPa 0,0 l/m 0 min 0 min 0 W/m 31,4 km/h (5 Bft) 100,00 %
15.01.2016 00:32 3,1 C 3,3 C 2,2 C 88 % 0 lf 1000,0 hPa 0,0 l/m 0 min 0 min 0 W/m 33,5 km/h (5 Bft) 95,74 %
15.01.2016 00:34 3,1 C 3,3 C 2,2 C 88 % 0 lf 1000,0 hPa 0,0 l/m 0 min 0 min 0 W/m 35,6 km/h (5 Bft) 97,87 %
15.01.2016 00:36 3,1 C 3,3 C 2,2 C 87 % 0 lf 1000,0 hPa 0,0 l/m 0 min 0 min 0 W/m 39,7 km/h (6 Bft) 100,00 %
15.01.2016 00:38 3,1 C 3,3 C 2,2 C 87 % 0 lf 999,8 hPa 0,0 l/m 0 min 0 min 0 W/m 54,4 km/h (7 Bft) 95,65 %
15.01.2016 00:40 3,2 C 3,3 C 2,2 C 87 % 0 lf 1000,0 hPa 0,0 l/m 0 min 0 min 0 W/m 58,6 km/h (7 Bft) 100,00 %
15.01.2016 00:42 3,2 C 3,3 C 2,2 C 86 % 0 lf 999,8 hPa 0,0 l/m 0 min 0 min 0 W/m 41,8 km/h (6 Bft) 97,87 %
15.01.2016 00:44 3,2 C 3,3 C 2,2 C 86 % 0 lf 999,8 hPa 0,0 l/m 0 min 0 min 0 W/m 46,0 km/h (6 Bft) 97,87 %
15.01.2016 00:46 3,2 C 3,3 C 2,2 C 86 % 0 lf 999,9 hPa 0,0 l/m 0 min 0 min 0 W/m 41,8 km/h (6 Bft) 95,74 %
15.01.2016 00:48 3,2 C 3,3 C 2,2 C 85 % 0 lf 999,7 hPa 0,0 l/m 0 min 0 min 0 W/m 39,7 km/h (6 Bft) 97,87 %
15.01.2016 00:50 3,2 C 3,3 C 2,2 C 85 % 0 lf 999,8 hPa 0,0 l/m 0 min 0 min 0 W/m 46,0 km/h (6 Bft) 95,65 %
15.01.2016 00:52 3,2 C 3,3 C 2,2 C 85 % 0 lf 999,7 hPa 0,0 l/m 0 min 0 min 0 W/m 41,8 km/h (6 Bft) 93,62 %
15.01.2016 00:54 3,2 C 3,3 C 2,2 C 85 % 0 lf 999,6 hPa 0,0 l/m 0 min 0 min 0 W/m 31,4 km/h (5 Bft) 97,87 %
15.01.2016 00:56 3,2 C 3,3 C 2,2 C 85 % 0 lf 999,7 hPa 0,0 l/m 0 min 0 min 0 W/m 39,7 km/h (6 Bft) 97,87 %
15.01.2016 00:58 3,2 C 3,3 C 1,7 C 85 % 0 lf 999,6 hPa 0,0 l/m 0 min 0 min 0 W/m 39,7 km/h (6 Bft) 97,87 %
15.01.2016 01:00 3,2 C 3,3 C 1,7 C 85 % 0 lf 999,5 hPa 0,0 l/m 0 min 0 min 0 W/m 33,5 km/h (5 Bft) 91,49 %
15.01.2016 01:02 3,2 C 3,3 C 1,7 C 85 % 0 lf 999,5 hPa 0,0 l/m 0 min 0 min 0 W/m 31,4 km/h (5 Bft) 97,87 %
15.01.2016 01:04 3,2 C 3,3 C 1,7 C 85 % 3 lf 999,7 hPa 0,0 l/m 0 min 2 min 0 W/m 35,6 km/h (5 Bft) 97,14 %
15.01.2016 01:06 3,2 C 3,3 C 1,7 C 85 % 3 lf 999,6 hPa 0,0 l/m 0 min 2 min 0 W/m 41,8 km/h (6 Bft) 94,92 %
15.01.2016 01:08 3,1 C 3,3 C 1,7 C 85 % 4 lf 999,5 hPa 0,0 l/m 0 min 2 min 0 W/m 48,1 km/h (6 Bft) 89,36 %
15.01.2016 01:10 3,1 C 3,3 C 1,7 C 85 % 4 lf 999,6 hPa 0,0 l/m 0 min 2 min 0 W/m 43,9 km/h (6 Bft) 93,62 %
15.01.2016 01:12 3,1 C 2,8 C 1,7 C 85 % 3 lf 999,6 hPa 0,0 l/m 0 min 2 min 0 W/m 54,4 km/h (7 Bft) 95,65 %
15.01.2016 01:14 3,1 C 2,8 C 1,7 C 85 % 3 lf 999,6 hPa 0,0 l/m 0 min 2 min 0 W/m 48,1 km/h (6 Bft) 97,22 %
15.01.2016 01:16 3,0 C 2,8 C 1,7 C 86 % 8 lf 999,6 hPa 0,0 l/m 0 min 2 min 0 W/m 41,8 km/h (6 Bft) 93,10 %
15.01.2016 01:18 2,9 C 2,8 C 1,1 C 86 % 15 lf 999,6 hPa 0,0 l/m 0 min 2 min 0 W/m 56,5 km/h (7 Bft) 95,74 %
15.01.2016 01:20 2,9 C 2,2 C 1,1 C 86 % 15 lf 999,7 hPa 0,0 l/m 0 min 2 min 0 W/m 48,1 km/h (6 Bft) 93,62 %
15.01.2016 01:22 2,8 C 2,2 C 1,1 C 87 % 15 lf 999,8 hPa 0,0 l/m 0 min 2 min 0 W/m 37,7 km/h (5 Bft) 95,74 %
15.01.2016 01:24 2,7 C 2,2 C 0,6 C 87 % 15 lf 999,7 hPa 0,0 l/m 0 min 2 min 0 W/m 37,7 km/h (5 Bft) 91,30 %
15.01.2016 01:26 2,7 C 1,7 C 0,6 C 88 % 15 lf 999,6 hPa 0,0 l/m 0 min 2 min 0 W/m 35,6 km/h (5 Bft) 91,49 %
15.01.2016 01:28 2,6 C 1,7 C 0,6 C 88 % 15 lf 999,6 hPa 0,0 l/m 0 min 2 min 0 W/m 35,6 km/h (5 Bft) 95,74 %
15.01.2016 01:30 2,5 C 1,7 C 0,6 C 88 % 15 lf 999,5 hPa 0,2 l/m 0 min 2 min 0 W/m 35,6 km/h (5 Bft) 93,62 %
15.01.2016 01:32 2,4 C 1,7 C 0,6 C 88 % 15 lf 999,5 hPa 0,0 l/m 0 min 2 min 0 W/m 60,7 km/h (7 Bft) 94,29 %
15.01.2016 01:34 2,4 C 1,7 C 0,6 C 89 % 15 lf 999,6 hPa 0,0 l/m 0 min 2 min 0 W/m 41,8 km/h (6 Bft) 91,53 %
15.01.2016 01:36 2,3 C 1,7 C 0,6 C 89 % 15 lf 999,6 hPa 0,0 l/m 0 min 2 min 0 W/m 46,0 km/h (6 Bft) 93,48 %
15.01.2016 01:38 2,3 C 1,7 C 0,6 C 89 % 15 lf 999,7 hPa 0,0 l/m 0 min 2 min 0 W/m 43,9 km/h (6 Bft) 93,62 %
15.01.2016 01:40 2,2 C 1,7 C 0,6 C 90 % 15 lf 999,7 hPa 0,0 l/m 0 min 2 min 0 W/m 41,8 km/h (6 Bft) 97,87 %
15.01.2016 01:42 2,1 C 1,7 C 0,6 C 90 % 15 lf 999,7 hPa 0,0 l/m 0 min 2 min 0 W/m 37,7 km/h (5 Bft) 95,74 %
15.01.2016 01:44 2,1 C 1,1 C 0,6 C 90 % 15 lf 999,8 hPa 0,0 l/m 0 min 2 min 0 W/m 31,4 km/h (5 Bft) 93,62 %
15.01.2016 01:46 2,0 C 1,1 C 0,6 C 90 % 15 lf 999,6 hPa 0,0 l/m 0 min 2 min 0 W/m 31,4 km/h (5 Bft) 89,36 %
15.01.2016 01:48 1,9 C 1,1 C 0,6 C 90 % 15 lf 999,6 hPa 0,2 l/m 0 min 2 min 0 W/m 33,5 km/h (5 Bft) 93,48 %
15.01.2016 01:50 1,9 C 1,1 C 0,6 C 91 % 15 lf 999,7 hPa 0,0 l/m 0 min 2 min 0 W/m 39,7 km/h (6 Bft) 95,74 %
15.01.2016 01:52 1,8 C 1,1 C 0,6 C 91 % 15 lf 999,8 hPa 0,0 l/m 0 min 2 min 0 W/m 39,7 km/h (6 Bft) 95,74 %
15.01.2016 01:54 1,8 C 1,1 C 0,6 C 91 % 15 lf 999,7 hPa 0,0 l/m 0 min 2 min 0 W/m 46,0 km/h (6 Bft) 97,87 %
15.01.2016 01:56 1,8 C 1,1 C 0,6 C 91 % 15 lf 999,8 hPa 0,0 l/m 0 min 2 min 0 W/m 33,5 km/h (5 Bft) 91,49 %
15.01.2016 01:58 1,7 C 1,1 C 0,6 C 92 % 15 lf 999,8 hPa 0,0 l/m 0 min 2 min 0 W/m 33,5 km/h (5 Bft) 93,62 %
15.01.2016 02:00 1,7 C 1,1 C 0,6 C 92 % 15 lf 999,8 hPa 0,0 l/m 0 min 2 min 0 W/m 39,7 km/h (6 Bft) 93,48 %
15.01.2016 02:02 1,7 C 1,1 C 0,0 C 92 % 15 lf 999,8 hPa 0,0 l/m 0 min 2 min 0 W/m 35,6 km/h (5 Bft) 95,74 %
15.01.2016 02:04 1,7 C 1,1 C 0,0 C 92 % 15 lf 999,8 hPa 0,0 l/m 0 min 2 min 0 W/m 39,7 km/h (6 Bft) 95,74 %
15.01.2016 02:06 1,6 C 1,1 C 0,0 C 92 % 15 lf 999,8 hPa 0,0 l/m 0 min 2 min 0 W/m 41,8 km/h (6 Bft) 93,62 %
15.01.2016 02:08 1,6 C 1,1 C 0,0 C 92 % 15 lf 999,6 hPa 0,0 l/m 0 min 2 min 0 W/m 33,5 km/h (5 Bft) 97,14 %
15.01.2016 02:10 1,6 C 1,1 C 0,0 C 92 % 15 lf 999,7 hPa 0,0 l/m 0 min 2 min 0 W/m 39,7 km/h (6 Bft) 94,83 %
15.01.2016 02:12 1,5 C 1,1 C 0,0 C 93 % 15 lf 999,7 hPa 0,0 l/m 0 min 2 min 0 W/m 31,4 km/h (5 Bft) 93,62 %
15.01.2016 02:14 1,5 C 1,1 C 0,0 C 93 % 15 lf 999,7 hPa 0,0 l/m 0 min 2 min 0 W/m 27,2 km/h (4 Bft) 95,74 %
15.01.2016 02:16 1,5 C 1,1 C 0,0 C 93 % 15 lf 999,7 hPa 0,0 l/m 0 min 2 min 0 W/m 33,5 km/h (5 Bft) 91,49 %
15.01.2016 02:18 1,4 C 1,1 C 0,0 C 93 % 15 lf 999,7 hPa 0,0 l/m 0 min 2 min 0 W/m 27,2 km/h (4 Bft) 93,62 %
15.01.2016 02:20 1,4 C 1,1 C 0,0 C 93 % 15 lf 999,8 hPa 0,0 l/m 0 min 2 min 0 W/m 31,4 km/h (5 Bft) 95,74 %
15.01.2016 02:22 1,4 C 1,1 C 0,0 C 93 % 15 lf 999,6 hPa 0,0 l/m 0 min 0 min 0 W/m 33,5 km/h (5 Bft) 95,65 %
15.01.2016 02:24 1,4 C 1,1 C 0,0 C 93 % 15 lf 999,6 hPa 0,0 l/m 0 min 0 min 0 W/m 41,8 km/h (6 Bft) 95,74 %
15.01.2016 02:26 1,4 C 1,1 C 0,0 C 93 % 15 lf 999,6 hPa 0,0 l/m 0 min 2 min 0 W/m 33,5 km/h (5 Bft) 97,87 %
15.01.2016 02:28 1,4 C 1,1 C 0,6 C 93 % 15 lf 999,6 hPa 0,0 l/m 0 min 2 min 0 W/m 37,7 km/h (5 Bft) 93,62 %
15.01.2016 02:30 1,4 C 1,1 C 0,6 C 94 % 15 lf 999,7 hPa 0,0 l/m 0 min 2 min 0 W/m 25,1 km/h (4 Bft) 97,87 %
15.01.2016 02:32 1,4 C 1,1 C 0,6 C 93 % 15 lf 999,7 hPa 0,0 l/m 0 min 0 min 0 W/m 35,6 km/h (5 Bft) 95,74 %
15.01.2016 02:34 1,4 C 1,1 C 0,6 C 94 % 15 lf 999,6 hPa 0,0 l/m 0 min 2 min 0 W/m 43,9 km/h (6 Bft) 97,83 %
15.01.2016 02:36 1,5 C 1,1 C 0,6 C 94 % 15 lf 999,7 hPa 0,0 l/m 0 min 0 min 0 W/m 27,2 km/h (4 Bft) 97,87 %
15.01.2016 02:38 1,5 C 1,1 C 0,6 C 94 % 15 lf 999,6 hPa 0,0 l/m 0 min 0 min 0 W/m 33,5 km/h (5 Bft) 100,00 %
15.01.2016 02:40 1,5 C 1,1 C 0,6 C 94 % 15 lf 999,8 hPa 0,0 l/m 0 min 0 min 0 W/m 29,3 km/h (5 Bft) 93,62 %
15.01.2016 02:42 1,5 C 1,7 C 0,6 C 94 % 15 lf 999,7 hPa 0,0 l/m 0 min 0 min 0 W/m 37,7 km/h (5 Bft) 100,00 %
15.01.2016 02:44 1,5 C 1,7 C 0,6 C 94 % 15 lf 999,6 hPa 0,0 l/m 0 min 0 min 0 W/m 31,4 km/h (5 Bft) 100,00 %
15.01.2016 02:46 1,5 C 1,7 C 0,6 C 94 % 15 lf 999,7 hPa 0,0 l/m 0 min 0 min 0 W/m 31,4 km/h (5 Bft) 97,83 %
15.01.2016 02:48 1,5 C 1,7 C 0,6 C 94 % 15 lf 999,7 hPa 0,0 l/m 0 min 2 min 0 W/m 29,3 km/h (5 Bft) 100,00 %
15.01.2016 02:50 1,5 C 1,7 C 0,6 C 94 % 15 lf 999,7 hPa 0,0 l/m 0 min 2 min 0 W/m 23,0 km/h (4 Bft) 95,74 %
15.01.2016 02:52 1,5 C 1,7 C 0,6 C 94 % 15 lf 999,7 hPa 0,0 l/m 0 min 2 min 0 W/m 18,8 km/h (3 Bft) 97,87 %
15.01.2016 02:54 1,5 C 1,7 C 0,6 C 94 % 15 lf 999,7 hPa 0,0 l/m 0 min 2 min 0 W/m 25,1 km/h (4 Bft) 100,00 %
15.01.2016 02:56 1,5 C 1,1 C 0,6 C 94 % 15 lf 999,7 hPa 0,0 l/m 0 min 2 min 0 W/m 33,5 km/h (5 Bft) 98,31 %
15.01.2016 02:58 1,5 C 1,1 C 0,6 C 94 % 15 lf 999,7 hPa 0,0 l/m 0 min 2 min 0 W/m 25,1 km/h (4 Bft) 97,83 %
15.01.2016 03:00 1,5 C 1,1 C 0,6 C 94 % 15 lf 999,7 hPa 0,0 l/m 0 min 0 min 0 W/m 27,2 km/h (4 Bft) 95,74 %
15.01.2016 03:02 1,5 C 1,1 C 0,6 C 94 % 15 lf 999,8 hPa 0,0 l/m 0 min 2 min 0 W/m 27,2 km/h (4 Bft) 97,14 %
15.01.2016 03:04 1,5 C 1,1 C 0,6 C 95 % 15 lf 999,8 hPa 0,0 l/m 0 min 0 min 0 W/m 31,4 km/h (5 Bft) 91,49 %
15.01.2016 03:06 1,5 C 1,1 C 0,6 C 95 % 15 lf 999,8 hPa 0,0 l/m 0 min 0 min 0 W/m 23,0 km/h (4 Bft) 96,61 %
15.01.2016 03:08 1,5 C 1,1 C 0,6 C 95 % 15 lf 999,8 hPa 0,0 l/m 0 min 0 min 0 W/m 25,1 km/h (4 Bft) 95,74 %
15.01.2016 03:10 1,5 C 1,1 C 0,6 C 95 % 15 lf 999,9 hPa 0,0 l/m 0 min 0 min 0 W/m 25,1 km/h (4 Bft) 95,65 %
15.01.2016 03:12 1,5 C 1,1 C 0,6 C 95 % 15 lf 999,9 hPa 0,0 l/m 0 min 0 min 0 W/m 31,4 km/h (5 Bft) 97,87 %
15.01.2016 03:14 1,5 C 1,1 C 0,6 C 95 % 15 lf 1000,0 hPa 0,0 l/m 0 min 0 min 0 W/m 25,1 km/h (4 Bft) 93,62 %
15.01.2016 03:16 1,5 C 1,7 C 0,6 C 95 % 15 lf 1000,1 hPa 0,0 l/m 0 min 0 min 0 W/m 25,1 km/h (4 Bft) 95,74 %
15.01.2016 03:18 1,5 C 1,7 C 0,6 C 95 % 15 lf 1000,1 hPa 0,0 l/m 0 min 0 min 0 W/m 18,8 km/h (3 Bft) 97,87 %
15.01.2016 03:20 1,5 C 1,7 C 0,6 C 95 % 15 lf 1000,1 hPa 0,0 l/m 0 min 0 min 0 W/m 16,7 km/h (3 Bft) 93,48 %
15.01.2016 03:22 1,5 C 1,7 C 0,6 C 95 % 15 lf 1000,1 hPa 0,0 l/m 0 min 0 min 0 W/m 27,2 km/h (4 Bft) 95,74 %
15.01.2016 03:24 1,5 C 1,7 C 0,6 C 95 % 15 lf 1000,1 hPa 0,0 l/m 0 min 0 min 0 W/m 16,7 km/h (3 Bft) 93,62 %
15.01.2016 03:26 1,5 C 1,7 C 0,6 C 95 % 15 lf 1000,1 hPa 0,0 l/m 0 min 0 min 0 W/m 23,0 km/h (4 Bft) 93,62 %
15.01.2016 03:28 1,6 C 1,7 C 0,6 C 95 % 15 lf 1000,1 hPa 0,0 l/m 0 min 0 min 0 W/m 25,1 km/h (4 Bft) 93,62 %
15.01.2016 03:30 1,6 C 1,7 C 0,6 C 95 % 15 lf 1000,1 hPa 0,0 l/m 0 min 0 min 0 W/m 25,1 km/h (4 Bft) 95,74 %
15.01.2016 03:32 1,6 C 1,7 C 0,6 C 95 % 15 lf 1000,1 hPa 0,0 l/m 0 min 0 min 0 W/m 23,0 km/h (4 Bft) 91,43 %
15.01.2016 03:34 1,6 C 1,7 C 0,6 C 95 % 15 lf 1000,1 hPa 0,0 l/m 0 min 0 min 0 W/m 27,2 km/h (4 Bft) 98,28 %
15.01.2016 03:36 1,6 C 1,7 C 0,6 C 95 % 15 lf 1000,1 hPa 0,0 l/m 0 min 0 min 0 W/m 23,0 km/h (4 Bft) 97,14 %
15.01.2016 03:38 1,6 C 1,7 C 0,6 C 95 % 15 lf 1000,1 hPa 0,0 l/m 0 min 0 min 0 W/m 23,0 km/h (4 Bft) 100,00 %
15.01.2016 03:40 1,6 C 1,7 C 0,6 C 95 % 15 lf 1000,0 hPa 0,0 l/m 0 min 0 min 0 W/m 25,1 km/h (4 Bft) 100,00 %
15.01.2016 03:42 1,6 C 1,7 C 0,6 C 95 % 15 lf 1000,0 hPa 0,0 l/m 0 min 0 min 0 W/m 23,0 km/h (4 Bft) 91,49 %
15.01.2016 03:44 1,6 C 1,7 C 0,6 C 95 % 15 lf 1000,1 hPa 0,0 l/m 0 min 0 min 0 W/m 29,3 km/h (5 Bft) 97,83 %
15.01.2016 03:46 1,6 C 1,7 C 0,6 C 95 % 15 lf 1000,0 hPa 0,0 l/m 0 min 0 min 0 W/m 23,0 km/h (4 Bft) 97,87 %
15.01.2016 03:48 1,6 C 1,7 C 0,6 C 95 % 15 lf 1000,0 hPa 0,0 l/m 0 min 2 min 0 W/m 25,1 km/h (4 Bft) 95,74 %
15.01.2016 03:50 1,6 C 1,7 C 0,6 C 95 % 15 lf 1000,1 hPa 0,0 l/m 0 min 2 min 0 W/m 20,9 km/h (4 Bft) 97,87 %
15.01.2016 03:52 1,6 C 1,7 C 0,6 C 95 % 15 lf 1000,1 hPa 0,0 l/m 0 min 2 min 0 W/m 29,3 km/h (5 Bft) 97,87 %
15.01.2016 03:54 1,7 C 1,7 C 0,6 C 95 % 15 lf 1000,1 hPa 0,0 l/m 0 min 2 min 0 W/m 20,9 km/h (4 Bft) 95,74 %
15.01.2016 03:56 1,7 C 1,7 C 0,6 C 95 % 15 lf 1000,2 hPa 0,0 l/m 0 min 0 min 0 W/m 23,0 km/h (4 Bft) 97,83 %
15.01.2016 03:58 1,7 C 1,7 C 0,6 C 95 % 15 lf 1000,2 hPa 0,0 l/m 0 min 0 min 0 W/m 27,2 km/h (4 Bft) 97,87 %
15.01.2016 04:00 1,7 C 1,7 C 0,6 C 95 % 15 lf 1000,2 hPa 0,0 l/m 0 min 0 min 0 W/m 20,9 km/h (4 Bft) 97,14 %
15.01.2016 04:05 1,7 C 1,7 C 0,6 C 95 % 15 lf 1000,3 hPa 0,0 l/m 0 min 0 min 0 W/m 25,1 km/h (4 Bft) 98,51 %
15.01.2016 04:06 1,7 C 1,7 C 0,6 C 95 % 15 lf 1000,3 hPa 0,0 l/m 0 min 0 min 0 W/m 27,2 km/h (4 Bft) 100,00 %
15.01.2016 04:08 1,7 C 1,7 C 0,6 C 96 % 15 lf 1000,3 hPa 0,0 l/m 0 min 2 min 0 W/m 29,3 km/h (5 Bft) 97,14 %
15.01.2016 04:10 1,8 C 1,7 C 0,6 C 96 % 15 lf 1000,3 hPa 0,0 l/m 0 min 0 min 0 W/m 29,3 km/h (5 Bft) 98,28 %
15.01.2016 04:12 1,8 C 1,7 C 0,6 C 96 % 15 lf 1000,3 hPa 0,0 l/m 0 min 2 min 0 W/m 27,2 km/h (4 Bft) 100,00 %
15.01.2016 04:14 1,8 C 1,7 C 0,6 C 96 % 15 lf 1000,4 hPa 0,0 l/m 0 min 2 min 0 W/m 29,3 km/h (5 Bft) 100,00 %
15.01.2016 04:16 1,8 C 2,2 C 0,6 C 96 % 15 lf 1000,4 hPa 0,0 l/m 0 min 2 min 0 W/m 20,9 km/h (4 Bft) 95,74 %
15.01.2016 04:18 1,8 C 2,2 C 0,6 C 96 % 15 lf 1000,4 hPa 0,0 l/m 0 min 2 min 0 W/m 20,9 km/h (4 Bft) 97,83 %
15.01.2016 04:20 1,9 C 2,2 C 0,6 C 96 % 15 lf 1000,3 hPa 0,0 l/m 0 min 2 min 0 W/m 27,2 km/h (4 Bft) 97,87 %
15.01.2016 04:22 1,9 C 2,2 C 0,6 C 96 % 15 lf 1000,4 hPa 0,0 l/m 0 min 2 min 0 W/m 29,3 km/h (5 Bft) 97,14 %
15.01.2016 04:24 1,9 C 2,2 C 0,6 C 96 % 15 lf 1000,3 hPa 0,0 l/m 0 min 0 min 0 W/m 27,2 km/h (4 Bft) 100,00 %
15.01.2016 04:26 1,9 C 2,2 C 0,6 C 96 % 15 lf 1000,4 hPa 0,0 l/m 0 min 0 min 0 W/m 18,8 km/h (3 Bft) 97,87 %
15.01.2016 04:28 1,9 C 2,2 C 0,6 C 96 % 15 lf 1000,4 hPa 0,0 l/m 0 min 0 min 0 W/m 23,0 km/h (4 Bft) 93,62 %
15.01.2016 04:30 1,9 C 2,2 C 1,1 C 96 % 15 lf 1000,4 hPa 0,0 l/m 0 min 2 min 0 W/m 23,0 km/h (4 Bft) 97,83 %
15.01.2016 04:32 1,9 C 2,2 C 1,1 C 96 % 15 lf 1000,4 hPa 0,0 l/m 0 min 2 min 0 W/m 14,6 km/h (3 Bft) 97,22 %
15.01.2016 04:34 1,9 C 2,2 C 1,1 C 96 % 15 lf 1000,4 hPa 0,0 l/m 0 min 0 min 0 W/m 25,1 km/h (4 Bft) 98,28 %
15.01.2016 04:36 1,9 C 2,2 C 1,1 C 96 % 15 lf 1000,5 hPa 0,0 l/m 0 min 0 min 0 W/m 20,9 km/h (4 Bft) 95,74 %
15.01.2016 04:38 1,9 C 2,2 C 1,1 C 96 % 15 lf 1000,4 hPa 0,0 l/m 0 min 2 min 0 W/m 25,1 km/h (4 Bft) 95,74 %
15.01.2016 04:40 2,0 C 2,2 C 1,1 C 96 % 15 lf 1000,4 hPa 0,0 l/m 0 min 2 min 0 W/m 31,4 km/h (5 Bft) 97,87 %
15.01.2016 04:42 2,0 C 2,2 C 1,1 C 96 % 15 lf 1000,4 hPa 0,0 l/m 0 min 0 min 0 W/m 18,8 km/h (3 Bft) 97,14 %
15.01.2016 04:44 2,1 C 2,2 C 1,1 C 96 % 15 lf 1000,5 hPa 0,0 l/m 0 min 0 min 0 W/m 20,9 km/h (4 Bft) 94,83 %
15.01.2016 04:46 2,1 C 2,2 C 1,1 C 96 % 15 lf 1000,5 hPa 0,0 l/m 0 min 0 min 0 W/m 29,3 km/h (5 Bft) 95,74 %
15.01.2016 04:48 2,1 C 2,2 C 1,1 C 96 % 15 lf 1000,5 hPa 0,0 l/m 0 min 0 min 0 W/m 23,0 km/h (4 Bft) 95,74 %
15.01.2016 04:50 2,2 C 2,2 C 1,1 C 96 % 15 lf 1000,5 hPa 0,0 l/m 0 min 0 min 0 W/m 31,4 km/h (5 Bft) 95,74 %
15.01.2016 04:52 2,2 C 2,2 C 1,1 C 96 % 15 lf 1000,5 hPa 0,0 l/m 0 min 2 min 0 W/m 35,6 km/h (5 Bft) 95,74 %
15.01.2016 04:54 2,2 C 2,2 C 1,1 C 96 % 15 lf 1000,5 hPa 0,0 l/m 0 min 0 min 0 W/m 31,4 km/h (5 Bft) 91,43 %
15.01.2016 04:56 2,3 C 2,2 C 1,1 C 96 % 15 lf 1000,5 hPa 0,0 l/m 0 min 2 min 0 W/m 39,7 km/h (6 Bft) 95,74 %
15.01.2016 04:58 2,3 C 2,2 C 1,1 C 96 % 15 lf 1000,5 hPa 0,0 l/m 0 min 0 min 0 W/m 27,2 km/h (4 Bft) 95,65 %
15.01.2016 05:00 2,3 C 2,2 C 1,1 C 96 % 15 lf 1000,5 hPa 0,0 l/m 0 min 0 min 0 W/m 31,4 km/h (5 Bft) 94,92 %
15.01.2016 05:02 2,3 C 2,2 C 1,1 C 96 % 15 lf 1000,6 hPa 0,0 l/m 0 min 2 min 0 W/m 39,7 km/h (6 Bft) 95,74 %
15.01.2016 05:04 2,3 C 2,2 C 1,1 C 96 % 15 lf 1000,6 hPa 0,0 l/m 0 min 0 min 0 W/m 37,7 km/h (5 Bft) 97,87 %
15.01.2016 05:06 2,4 C 2,8 C 1,1 C 96 % 15 lf 1000,7 hPa 0,0 l/m 0 min 0 min 0 W/m 29,3 km/h (5 Bft) 94,29 %
15.01.2016 05:08 2,4 C 2,8 C 1,1 C 96 % 15 lf 1000,7 hPa 0,0 l/m 0 min 0 min 0 W/m 23,0 km/h (4 Bft) 95,74 %
15.01.2016 05:10 2,4 C 2,8 C 1,1 C 96 % 15 lf 1000,9 hPa 0,0 l/m 0 min 0 min 0 W/m 23,0 km/h (4 Bft) 94,83 %
15.01.2016 05:12 2,4 C 2,8 C 1,1 C 96 % 15 lf 1000,8 hPa 0,0 l/m 0 min 0 min 0 W/m 23,0 km/h (4 Bft) 95,74 %
15.01.2016 05:14 2,4 C 2,8 C 1,1 C 96 % 15 lf 1000,8 hPa 0,0 l/m 0 min 0 min 0 W/m 20,9 km/h (4 Bft) 94,29 %
15.01.2016 05:16 2,4 C 2,8 C 1,1 C 96 % 15 lf 1000,8 hPa 0,0 l/m 0 min 0 min 0 W/m 29,3 km/h (5 Bft) 97,87 %
15.01.2016 05:18 2,4 C 2,8 C 1,1 C 96 % 15 lf 1000,8 hPa 0,2 l/m 0 min 2 min 0 W/m 41,8 km/h (6 Bft) 97,87 %
15.01.2016 05:20 2,4 C 2,8 C 1,1 C 96 % 15 lf 1000,9 hPa 0,0 l/m 0 min 2 min 0 W/m 39,7 km/h (6 Bft) 93,10 %
15.01.2016 05:22 2,4 C 2,8 C 1,1 C 96 % 15 lf 1000,9 hPa 0,0 l/m 0 min 2 min 0 W/m 31,4 km/h (5 Bft) 95,74 %
15.01.2016 05:24 2,4 C 2,8 C 1,1 C 96 % 15 lf 1001,0 hPa 0,0 l/m 0 min 2 min 0 W/m 39,7 km/h (6 Bft) 97,14 %
15.01.2016 05:26 2,4 C 2,8 C 1,1 C 96 % 15 lf 1001,1 hPa 0,0 l/m 0 min 2 min 0 W/m 50,2 km/h (7 Bft) 94,92 %
15.01.2016 05:28 2,4 C 2,8 C 1,1 C 96 % 14 lf 1001,0 hPa 0,0 l/m 0 min 0 min 0 W/m 37,7 km/h (5 Bft) 100,00 %
15.01.2016 05:30 2,4 C 2,8 C 1,1 C 96 % 14 lf 1001,1 hPa 0,0 l/m 0 min 0 min 0 W/m 25,1 km/h (4 Bft) 100,00 %
15.01.2016 05:32 2,4 C 2,8 C 1,1 C 96 % 13 lf 1001,2 hPa 0,0 l/m 0 min 0 min 0 W/m 29,3 km/h (5 Bft) 94,29 %
15.01.2016 05:34 2,4 C 2,8 C 1,1 C 96 % 13 lf 1001,2 hPa 0,0 l/m 0 min 0 min 0 W/m 37,7 km/h (5 Bft) 100,00 %
15.01.2016 05:36 2,4 C 2,8 C 1,1 C 95 % 12 lf 1001,1 hPa 0,0 l/m 0 min 0 min 0 W/m 31,4 km/h (5 Bft) 97,14 %
15.01.2016 05:38 2,4 C 2,8 C 1,1 C 95 % 11 lf 1001,1 hPa 0,0 l/m 0 min 0 min 0 W/m 29,3 km/h (5 Bft) 100,00 %
15.01.2016 05:40 2,4 C 2,8 C 1,1 C 95 % 10 lf 1001,1 hPa 0,0 l/m 0 min 0 min 0 W/m 41,8 km/h (6 Bft) 96,55 %
15.01.2016 05:42 2,4 C 2,8 C 1,1 C 95 % 9 lf 1001,2 hPa 0,0 l/m 0 min 0 min 0 W/m 31,4 km/h (5 Bft) 100,00 %
15.01.2016 05:44 2,4 C 2,8 C 1,1 C 95 % 8 lf 1001,2 hPa 0,0 l/m 0 min 0 min 0 W/m 33,5 km/h (5 Bft) 98,28 %
15.01.2016 05:46 2,4 C 2,8 C 1,1 C 95 % 8 lf 1001,2 hPa 0,0 l/m 0 min 0 min 0 W/m 18,8 km/h (3 Bft) 93,62 %
15.01.2016 05:48 2,5 C 2,8 C 1,1 C 95 % 7 lf 1001,4 hPa 0,0 l/m 0 min 0 min 0 W/m 25,1 km/h (4 Bft) 95,74 %
15.01.2016 05:50 2,5 C 2,8 C 1,1 C 95 % 6 lf 1001,4 hPa 0,0 l/m 0 min 0 min 0 W/m 23,0 km/h (4 Bft) 93,62 %
15.01.2016 05:52 2,5 C 2,8 C 1,1 C 94 % 6 lf 1001,3 hPa 0,0 l/m 0 min 0 min 0 W/m 29,3 km/h (5 Bft) 91,43 %
15.01.2016 05:54 2,6 C 2,8 C 1,1 C 94 % 4 lf 1001,3 hPa 0,0 l/m 0 min 0 min 0 W/m 16,7 km/h (3 Bft) 94,83 %
15.01.2016 05:56 2,6 C 2,8 C 1,1 C 94 % 4 lf 1001,3 hPa 0,0 l/m 0 min 0 min 0 W/m 29,3 km/h (5 Bft) 91,49 %
15.01.2016 05:58 2,6 C 2,8 C 1,1 C 94 % 4 lf 1001,3 hPa 0,0 l/m 0 min 0 min 0 W/m 33,5 km/h (5 Bft) 95,74 %
15.01.2016 06:00 2,6 C 2,8 C 1,1 C 94 % 4 lf 1001,4 hPa 0,0 l/m 0 min 0 min 0 W/m 25,1 km/h (4 Bft) 91,43 %
15.01.2016 06:02 2,6 C 2,8 C 1,1 C 94 % 3 lf 1001,4 hPa 0,0 l/m 0 min 0 min 0 W/m 29,3 km/h (5 Bft) 91,49 %
15.01.2016 06:04 2,6 C 2,8 C 1,1 C 94 % 3 lf 1001,4 hPa 0,0 l/m 0 min 0 min 0 W/m 29,3 km/h (5 Bft) 95,83 %
15.01.2016 06:06 2,6 C 2,8 C 1,1 C 94 % 3 lf 1001,5 hPa 0,0 l/m 0 min 0 min 0 W/m 25,1 km/h (4 Bft) 95,65 %
15.01.2016 06:08 2,6 C 2,8 C 1,1 C 94 % 3 lf 1001,5 hPa 0,0 l/m 0 min 0 min 0 W/m 31,4 km/h (5 Bft) 93,62 %
15.01.2016 06:10 2,6 C 2,8 C 1,1 C 93 % 2 lf 1001,6 hPa 0,0 l/m 0 min 0 min 0 W/m 25,1 km/h (4 Bft) 95,74 %
15.01.2016 06:12 2,6 C 2,8 C 1,1 C 93 % 2 lf 1001,6 hPa 0,0 l/m 0 min 0 min 0 W/m 29,3 km/h (5 Bft) 93,62 %
15.01.2016 06:14 2,6 C 2,8 C 1,1 C 93 % 1 lf 1001,5 hPa 0,0 l/m 0 min 0 min 0 W/m 20,9 km/h (4 Bft) 93,62 %
15.01.2016 06:16 2,6 C 2,8 C 1,1 C 93 % 1 lf 1001,6 hPa 0,0 l/m 0 min 0 min 0 W/m 23,0 km/h (4 Bft) 93,62 %
15.01.2016 06:18 2,5 C 2,8 C 1,1 C 93 % 1 lf 1001,6 hPa 0,0 l/m 0 min 0 min 0 W/m 23,0 km/h (4 Bft) 93,48 %
15.01.2016 06:20 2,6 C 2,8 C 1,1 C 93 % 0 lf 1001,6 hPa 0,0 l/m 0 min 0 min 0 W/m 18,8 km/h (3 Bft) 95,74 %
15.01.2016 06:22 2,5 C 2,8 C 1,1 C 93 % 0 lf 1001,6 hPa 0,0 l/m 0 min 0 min 0 W/m 23,0 km/h (4 Bft) 93,62 %
15.01.2016 06:24 2,5 C 2,8 C 1,1 C 93 % 0 lf 1001,6 hPa 0,0 l/m 0 min 0 min 0 W/m 35,6 km/h (5 Bft) 91,49 %
15.01.2016 06:26 2,6 C 2,8 C 1,1 C 93 % 0 lf 1001,6 hPa 0,0 l/m 0 min 0 min 0 W/m 31,4 km/h (5 Bft) 93,62 %
15.01.2016 06:28 2,6 C 2,8 C 1,1 C 92 % 0 lf 1001,6 hPa 0,0 l/m 0 min 0 min 0 W/m 18,8 km/h (3 Bft) 95,74 %
15.01.2016 06:30 2,5 C 2,8 C 1,1 C 92 % 0 lf 1001,6 hPa 0,0 l/m 0 min 0 min 0 W/m 39,7 km/h (6 Bft) 95,65 %
15.01.2016 06:32 2,5 C 2,8 C 1,1 C 92 % 0 lf 1001,7 hPa 0,0 l/m 0 min 0 min 0 W/m 35,6 km/h (5 Bft) 95,74 %
15.01.2016 06:34 2,5 C 2,8 C 1,1 C 92 % 0 lf 1001,7 hPa 0,0 l/m 0 min 0 min 0 W/m 31,4 km/h (5 Bft) 95,74 %
15.01.2016 06:36 2,5 C 2,8 C 1,1 C 92 % 0 lf 1001,8 hPa 0,0 l/m 0 min 0 min 0 W/m 23,0 km/h (4 Bft) 93,62 %
15.01.2016 06:38 2,6 C 2,8 C 1,1 C 92 % 0 lf 1001,7 hPa 0,0 l/m 0 min 0 min 0 W/m 25,1 km/h (4 Bft) 95,74 %
15.01.2016 06:40 2,6 C 2,8 C 1,1 C 92 % 0 lf 1001,9 hPa 0,0 l/m 0 min 0 min 0 W/m 25,1 km/h (4 Bft) 95,74 %
15.01.2016 06:42 2,5 C 2,8 C 1,1 C 92 % 0 lf 1001,9 hPa 0,0 l/m 0 min 0 min 0 W/m 27,2 km/h (4 Bft) 95,65 %
15.01.2016 06:44 2,6 C 2,8 C 1,1 C 92 % 0 lf 1001,9 hPa 0,0 l/m 0 min 0 min 0 W/m 39,7 km/h (6 Bft) 93,62 %
15.01.2016 06:46 2,6 C 2,8 C 1,1 C 91 % 0 lf 1001,9 hPa 0,0 l/m 0 min 0 min 0 W/m 27,2 km/h (4 Bft) 93,62 %
15.01.2016 06:48 2,6 C 2,8 C 1,1 C 91 % 0 lf 1001,9 hPa 0,0 l/m 0 min 0 min 0 W/m 23,0 km/h (4 Bft) 95,74 %
15.01.2016 06:50 2,6 C 2,8 C 1,1 C 91 % 0 lf 1002,0 hPa 0,0 l/m 0 min 0 min 0 W/m 25,1 km/h (4 Bft) 95,74 %
15.01.2016 06:52 2,6 C 2,8 C 1,1 C 91 % 0 lf 1001,9 hPa 0,0 l/m 0 min 0 min 0 W/m 18,8 km/h (3 Bft) 91,49 %
15.01.2016 06:54 2,6 C 2,8 C 1,1 C 91 % 0 lf 1002,0 hPa 0,0 l/m 0 min 0 min 0 W/m 29,3 km/h (5 Bft) 95,65 %
15.01.2016 06:56 2,6 C 2,8 C 1,1 C 91 % 0 lf 1002,0 hPa 0,0 l/m 0 min 0 min 0 W/m 27,2 km/h (4 Bft) 95,74 %
15.01.2016 06:58 2,6 C 2,8 C 1,1 C 91 % 0 lf 1002,0 hPa 0,0 l/m 0 min 0 min 0 W/m 37,7 km/h (5 Bft) 93,62 %
15.01.2016 07:00 2,6 C 2,8 C 1,1 C 91 % 0 lf 1002,1 hPa 0,0 l/m 0 min 0 min 0 W/m 20,9 km/h (4 Bft) 95,74 %
15.01.2016 07:02 2,6 C 2,8 C 1,1 C 91 % 0 lf 1002,1 hPa 0,0 l/m 0 min 0 min 0 W/m 29,3 km/h (5 Bft) 96,00 %
15.01.2016 07:04 2,6 C 2,8 C 1,1 C 91 % 0 lf 1002,1 hPa 0,0 l/m 0 min 0 min 0 W/m 23,0 km/h (4 Bft) 100,00 %
15.01.2016 07:06 2,6 C 2,8 C 1,1 C 91 % 0 lf 1002,2 hPa 0,0 l/m 0 min 0 min 0 W/m 35,6 km/h (5 Bft) 100,00 %
15.01.2016 07:08 2,6 C 2,8 C 1,1 C 91 % 0 lf 1002,2 hPa 0,0 l/m 0 min 0 min 0 W/m 29,3 km/h (5 Bft) 97,87 %
15.01.2016 07:10 2,6 C 2,8 C 1,1 C 91 % 0 lf 1002,2 hPa 0,0 l/m 0 min 0 min 0 W/m 23,0 km/h (4 Bft) 100,00 %
15.01.2016 07:12 2,6 C 2,8 C 1,1 C 91 % 0 lf 1002,3 hPa 0,0 l/m 0 min 0 min 0 W/m 27,2 km/h (4 Bft) 97,87 %
15.01.2016 07:14 2,6 C 2,8 C 1,1 C 91 % 0 lf 1002,3 hPa 0,0 l/m 0 min 0 min 0 W/m 31,4 km/h (5 Bft) 100,00 %
15.01.2016 07:16 2,6 C 2,8 C 1,1 C 91 % 0 lf 1002,4 hPa 0,0 l/m 0 min 0 min 0 W/m 27,2 km/h (4 Bft) 100,00 %
15.01.2016 07:18 2,6 C 2,8 C 1,1 C 91 % 0 lf 1002,4 hPa 0,0 l/m 0 min 0 min 0 W/m 27,2 km/h (4 Bft) 97,87 %
15.01.2016 07:20 2,6 C 2,8 C 1,1 C 91 % 0 lf 1002,4 hPa 0,0 l/m 0 min 0 min 0 W/m 27,2 km/h (4 Bft) 95,74 %
15.01.2016 07:22 2,6 C 2,8 C 1,1 C 91 % 0 lf 1002,4 hPa 0,0 l/m 0 min 0 min 0 W/m 27,2 km/h (4 Bft) 97,87 %
15.01.2016 07:24 2,6 C 2,8 C 1,1 C 91 % 0 lf 1002,5 hPa 0,0 l/m 0 min 0 min 0 W/m 20,9 km/h (4 Bft) 100,00 %
15.01.2016 07:26 2,6 C 2,8 C 1,1 C 90 % 0 lf 1002,5 hPa 0,0 l/m 0 min 0 min 0 W/m 29,3 km/h (5 Bft) 100,00 %
15.01.2016 07:28 2,6 C 2,8 C 1,1 C 90 % 0 lf 1002,6 hPa 0,0 l/m 0 min 0 min 0 W/m 37,7 km/h (5 Bft) 100,00 %
15.01.2016 07:30 2,6 C 2,8 C 1,1 C 90 % 0 lf 1002,7 hPa 0,0 l/m 0 min 0 min 0 W/m 20,9 km/h (4 Bft) 97,87 %
15.01.2016 07:32 2,6 C 2,8 C 1,1 C 90 % 0 lf 1002,7 hPa 0,0 l/m 0 min 0 min 0 W/m 27,2 km/h (4 Bft) 97,87 %
15.01.2016 07:34 2,6 C 2,8 C 1,1 C 90 % 0 lf 1002,7 hPa 0,0 l/m 0 min 0 min 0 W/m 29,3 km/h (5 Bft) 100,00 %
15.01.2016 07:36 2,6 C 2,8 C 1,1 C 90 % 0 lf 1002,8 hPa 0,0 l/m 0 min 0 min 0 W/m 31,4 km/h (5 Bft) 97,87 %
15.01.2016 07:38 2,6 C 2,8 C 1,1 C 90 % 0 lf 1002,8 hPa 0,0 l/m 0 min 0 min 0 W/m 23,0 km/h (4 Bft) 100,00 %
15.01.2016 07:40 2,6 C 2,8 C 1,1 C 90 % 0 lf 1002,9 hPa 0,0 l/m 0 min 0 min 0 W/m 29,3 km/h (5 Bft) 100,00 %
15.01.2016 07:42 2,7 C 2,8 C 1,7 C 90 % 0 lf 1002,9 hPa 0,0 l/m 0 min 0 min 0 W/m 25,1 km/h (4 Bft) 97,87 %
15.01.2016 07:44 2,7 C 2,8 C 1,7 C 90 % 0 lf 1003,0 hPa 0,0 l/m 0 min 0 min 0 W/m 29,3 km/h (5 Bft) 97,87 %
15.01.2016 07:46 2,6 C 2,8 C 1,7 C 90 % 0 lf 1003,1 hPa 0,0 l/m 0 min 0 min 0 W/m 25,1 km/h (4 Bft) 97,87 %
15.01.2016 07:48 2,7 C 2,8 C 1,7 C 90 % 0 lf 1003,1 hPa 0,0 l/m 0 min 0 min 0 W/m 29,3 km/h (5 Bft) 97,87 %
15.01.2016 07:50 2,6 C 2,8 C 1,7 C 90 % 0 lf 1003,1 hPa 0,0 l/m 0 min 0 min 0 W/m 31,4 km/h (5 Bft) 95,74 %
15.01.2016 07:52 2,7 C 2,8 C 1,7 C 90 % 0 lf 1003,1 hPa 0,0 l/m 0 min 0 min 0 W/m 29,3 km/h (5 Bft) 95,65 %
15.01.2016 07:54 2,7 C 2,8 C 1,7 C 90 % 0 lf 1003,3 hPa 0,0 l/m 0 min 0 min 0 W/m 35,6 km/h (5 Bft) 97,87 %
15.01.2016 07:56 2,6 C 2,8 C 1,7 C 90 % 0 lf 1003,2 hPa 0,0 l/m 0 min 0 min 0 W/m 23,0 km/h (4 Bft) 93,62 %
15.01.2016 07:58 2,7 C 2,8 C 1,7 C 90 % 0 lf 1003,2 hPa 0,0 l/m 0 min 0 min 0 W/m 20,9 km/h (4 Bft) 97,87 %
15.01.2016 08:00 2,6 C 2,8 C 1,7 C 90 % 0 lf 1003,2 hPa 0,0 l/m 0 min 0 min 0 W/m 25,1 km/h (4 Bft) 95,74 %
15.01.2016 08:02 2,7 C 2,8 C 1,7 C 90 % 0 lf 1003,3 hPa 0,0 l/m 0 min 0 min 0 W/m 20,9 km/h (4 Bft) 93,62 %
15.01.2016 08:04 2,7 C 2,8 C 1,7 C 90 % 0 lf 1003,3 hPa 0,0 l/m 0 min 0 min 0 W/m 23,0 km/h (4 Bft) 97,83 %
15.01.2016 08:06 2,7 C 2,8 C 1,7 C 90 % 0 lf 1003,4 hPa 0,0 l/m 0 min 0 min 0 W/m 25,1 km/h (4 Bft) 95,74 %
15.01.2016 08:08 2,6 C 2,8 C 1,7 C 90 % 0 lf 1003,5 hPa 0,0 l/m 0 min 0 min 0 W/m 29,3 km/h (5 Bft) 93,62 %
15.01.2016 08:10 2,7 C 2,8 C 1,7 C 90 % 0 lf 1003,5 hPa 0,0 l/m 0 min 0 min 0 W/m 23,0 km/h (4 Bft) 93,62 %
15.01.2016 08:12 2,7 C 2,8 C 1,7 C 90 % 0 lf 1003,6 hPa 0,0 l/m 0 min 0 min 0 W/m 27,2 km/h (4 Bft) 97,87 %
15.01.2016 08:14 2,7 C 2,8 C 1,7 C 90 % 0 lf 1003,6 hPa 0,0 l/m 0 min 0 min 0 W/m 27,2 km/h (4 Bft) 95,65 %
15.01.2016 08:16 2,7 C 2,8 C 1,7 C 90 % 0 lf 1003,6 hPa 0,0 l/m 0 min 0 min 0 W/m 23,0 km/h (4 Bft) 95,74 %
15.01.2016 08:18 2,7 C 2,8 C 1,7 C 89 % 0 lf 1003,7 hPa 0,0 l/m 0 min 0 min 0 W/m 27,2 km/h (4 Bft) 91,49 %
15.01.2016 08:20 2,7 C 2,8 C 1,7 C 89 % 0 lf 1003,7 hPa 0,0 l/m 0 min 0 min 0 W/m 27,2 km/h (4 Bft) 93,75 %
15.01.2016 08:22 2,7 C 2,8 C 1,7 C 89 % 0 lf 1003,8 hPa 0,0 l/m 0 min 0 min 0 W/m 23,0 km/h (4 Bft) 95,65 %
15.01.2016 08:24 2,7 C 2,8 C 1,7 C 89 % 0 lf 1003,8 hPa 0,0 l/m 0 min 0 min 0 W/m 25,1 km/h (4 Bft) 93,48 %
15.01.2016 08:26 2,7 C 2,8 C 1,7 C 89 % 0 lf 1003,8 hPa 0,0 l/m 0 min 0 min 0 W/m 27,2 km/h (4 Bft) 91,49 %
15.01.2016 08:28 2,7 C 2,8 C 1,7 C 89 % 0 lf 1003,9 hPa 0,0 l/m 0 min 0 min 0 W/m 27,2 km/h (4 Bft) 91,49 %
15.01.2016 08:30 2,7 C 2,8 C 1,7 C 89 % 0 lf 1003,9 hPa 0,0 l/m 0 min 0 min 0 W/m 20,9 km/h (4 Bft) 87,23 %
15.01.2016 08:32 2,7 C 2,8 C 1,7 C 89 % 0 lf 1003,9 hPa 0,0 l/m 0 min 0 min 0 W/m 29,3 km/h (5 Bft) 93,62 %
15.01.2016 08:34 2,7 C 2,8 C 1,7 C 89 % 0 lf 1004,0 hPa 0,0 l/m 0 min 0 min 0 W/m 23,0 km/h (4 Bft) 93,62 %
15.01.2016 08:36 2,7 C 2,8 C 1,7 C 89 % 0 lf 1004,0 hPa 0,0 l/m 0 min 0 min 0 W/m 27,2 km/h (4 Bft) 93,48 %
15.01.2016 08:38 2,7 C 2,8 C 1,7 C 89 % 0 lf 1004,0 hPa 0,0 l/m 0 min 0 min 0 W/m 25,1 km/h (4 Bft) 95,74 %
15.01.2016 08:40 2,7 C 2,8 C 1,7 C 89 % 0 lf 1004,1 hPa 0,0 l/m 0 min 0 min 0 W/m 25,1 km/h (4 Bft) 93,62 %
15.01.2016 08:42 2,7 C 2,8 C 1,7 C 89 % 0 lf 1004,1 hPa 0,0 l/m 0 min 0 min 2 W/m 23,0 km/h (4 Bft) 91,49 %
15.01.2016 08:44 2,7 C 2,8 C 1,7 C 89 % 0 lf 1004,1 hPa 0,0 l/m 0 min 0 min 5 W/m 25,1 km/h (4 Bft) 93,62 %
15.01.2016 08:46 2,7 C 2,8 C 1,7 C 89 % 0 lf 1004,2 hPa 0,0 l/m 0 min 0 min 5 W/m 29,3 km/h (5 Bft) 97,87 %
15.01.2016 08:48 2,7 C 2,8 C 1,7 C 89 % 0 lf 1004,2 hPa 0,0 l/m 0 min 0 min 5 W/m 23,0 km/h (4 Bft) 95,65 %
15.01.2016 08:50 2,7 C 2,8 C 1,7 C 89 % 0 lf 1004,1 hPa 0,0 l/m 0 min 0 min 5 W/m 31,4 km/h (5 Bft) 97,87 %
15.01.2016 08:52 2,7 C 2,8 C 1,7 C 89 % 0 lf 1004,2 hPa 0,0 l/m 0 min 0 min 5 W/m 23,0 km/h (4 Bft) 95,74 %
15.01.2016 08:54 2,7 C 2,8 C 1,7 C 89 % 0 lf 1004,3 hPa 0,0 l/m 0 min 0 min 5 W/m 27,2 km/h (4 Bft) 97,87 %
15.01.2016 08:56 2,7 C 2,8 C 1,7 C 89 % 0 lf 1004,3 hPa 0,0 l/m 0 min 0 min 5 W/m 27,2 km/h (4 Bft) 97,83 %
15.01.2016 08:58 2,7 C 2,8 C 1,7 C 89 % 0 lf 1004,3 hPa 0,0 l/m 0 min 0 min 5 W/m 20,9 km/h (4 Bft) 95,74 %
15.01.2016 09:00 2,7 C 2,8 C 1,7 C 89 % 0 lf 1004,4 hPa 0,0 l/m 0 min 0 min 5 W/m 20,9 km/h (4 Bft) 95,65 %
15.01.2016 09:02 2,7 C 2,8 C 1,7 C 89 % 0 lf 1004,5 hPa 0,0 l/m 0 min 0 min 5 W/m 25,1 km/h (4 Bft) 95,74 %
15.01.2016 09:04 2,7 C 2,8 C 1,7 C 89 % 0 lf 1004,5 hPa 0,0 l/m 0 min 0 min 6 W/m 20,9 km/h (4 Bft) 100,00 %
15.01.2016 09:06 2,7 C 2,8 C 1,7 C 89 % 0 lf 1004,7 hPa 0,0 l/m 0 min 0 min 7 W/m 20,9 km/h (4 Bft) 100,00 %
15.01.2016 09:08 2,7 C 2,8 C 1,7 C 89 % 0 lf 1004,7 hPa 0,0 l/m 0 min 0 min 7 W/m 12,6 km/h (3 Bft) 97,78 %
15.01.2016 09:10 2,7 C 2,8 C 1,7 C 90 % 0 lf 1004,7 hPa 0,0 l/m 0 min 0 min 7 W/m 18,8 km/h (3 Bft) 95,74 %
15.01.2016 09:12 2,7 C 2,8 C 1,7 C 90 % 0 lf 1004,7 hPa 0,0 l/m 0 min 0 min 7 W/m 20,9 km/h (4 Bft) 100,00 %
15.01.2016 09:14 2,7 C 2,8 C 1,7 C 90 % 0 lf 1004,8 hPa 0,0 l/m 0 min 0 min 7 W/m 18,8 km/h (3 Bft) 97,83 %
15.01.2016 09:16 2,7 C 2,8 C 1,7 C 90 % 0 lf 1004,8 hPa 0,0 l/m 0 min 0 min 7 W/m 10,5 km/h (2 Bft) 97,87 %
15.01.2016 09:18 2,7 C 2,8 C 1,7 C 90 % 0 lf 1004,9 hPa 0,0 l/m 0 min 0 min 7 W/m 14,6 km/h (3 Bft) 100,00 %
15.01.2016 09:20 2,7 C 2,8 C 1,7 C 90 % 0 lf 1004,9 hPa 0,0 l/m 0 min 0 min 7 W/m 18,8 km/h (3 Bft) 100,00 %
15.01.2016 09:22 2,7 C 2,8 C 1,7 C 90 % 0 lf 1005,0 hPa 0,0 l/m 0 min 0 min 7 W/m 14,6 km/h (3 Bft) 100,00 %
15.01.2016 09:24 2,7 C 2,8 C 1,7 C 90 % 0 lf 1005,0 hPa 0,0 l/m 0 min 0 min 7 W/m 12,6 km/h (3 Bft) 100,00 %
15.01.2016 09:26 2,7 C 2,8 C 1,7 C 90 % 0 lf 1005,1 hPa 0,0 l/m 0 min 0 min 7 W/m 12,6 km/h (3 Bft) 100,00 %
15.01.2016 09:28 2,7 C 2,8 C 1,7 C 90 % 0 lf 1005,3 hPa 0,0 l/m 0 min 0 min 7 W/m 20,9 km/h (4 Bft) 97,87 %
15.01.2016 09:30 2,7 C 2,8 C 1,7 C 90 % 0 lf 1005,4 hPa 0,0 l/m 0 min 0 min 7 W/m 14,6 km/h (3 Bft) 97,87 %
15.01.2016 09:32 2,7 C 2,8 C 1,7 C 90 % 0 lf 1005,3 hPa 0,0 l/m 0 min 0 min 7 W/m 12,6 km/h (3 Bft) 100,00 %
15.01.2016 09:34 2,7 C 2,8 C 1,7 C 90 % 0 lf 1005,4 hPa 0,0 l/m 0 min 0 min 7 W/m 8,4 km/h (2 Bft) 95,74 %
15.01.2016 09:36 2,6 C 2,8 C 1,7 C 90 % 0 lf 1005,4 hPa 0,0 l/m 0 min 0 min 7 W/m 12,6 km/h (3 Bft) 100,00 %
15.01.2016 09:38 2,7 C 2,8 C 1,7 C 90 % 0 lf 1005,4 hPa 0,0 l/m 0 min 0 min 5 W/m 14,6 km/h (3 Bft) 100,00 %
15.01.2016 09:40 2,6 C 2,8 C 1,7 C 90 % 0 lf 1005,4 hPa 0,0 l/m 0 min 0 min 5 W/m 12,6 km/h (3 Bft) 100,00 %
15.01.2016 09:42 2,6 C 2,8 C 1,7 C 90 % 0 lf 1005,5 hPa 0,0 l/m 0 min 2 min 6 W/m 14,6 km/h (3 Bft) 100,00 %
15.01.2016 09:44 2,7 C 2,8 C 1,7 C 90 % 0 lf 1005,5 hPa 0,0 l/m 0 min 2 min 7 W/m 14,6 km/h (3 Bft) 97,87 %
15.01.2016 09:46 2,6 C 2,8 C 1,7 C 90 % 1 lf 1005,5 hPa 0,0 l/m 0 min 2 min 8 W/m 14,6 km/h (3 Bft) 100,00 %
15.01.2016 09:48 2,6 C 2,8 C 1,7 C 90 % 1 lf 1005,6 hPa 0,0 l/m 0 min 0 min 9 W/m 10,5 km/h (2 Bft) 100,00 %
15.01.2016 09:50 2,6 C 2,8 C 1,7 C 90 % 1 lf 1005,6 hPa 0,0 l/m 0 min 0 min 9 W/m 14,6 km/h (3 Bft) 95,74 %
15.01.2016 09:52 2,6 C 2,8 C 1,7 C 90 % 1 lf 1005,7 hPa 0,0 l/m 0 min 0 min 9 W/m 14,6 km/h (3 Bft) 100,00 %
15.01.2016 09:54 2,6 C 2,8 C 1,7 C 90 % 1 lf 1005,7 hPa 0,0 l/m 0 min 0 min 10 W/m 14,6 km/h (3 Bft) 97,87 %
15.01.2016 09:56 2,7 C 2,8 C 1,7 C 91 % 2 lf 1005,8 hPa 0,0 l/m 0 min 0 min 11 W/m 29,3 km/h (5 Bft) 97,87 %
15.01.2016 09:58 2,7 C 2,8 C 1,7 C 91 % 2 lf 1005,8 hPa 0,0 l/m 0 min 0 min 11 W/m 23,0 km/h (4 Bft) 100,00 %
15.01.2016 10:00 2,7 C 2,8 C 1,7 C 91 % 2 lf 1005,7 hPa 0,0 l/m 0 min 0 min 11 W/m 20,9 km/h (4 Bft) 100,00 %
15.01.2016 10:02 2,7 C 2,8 C 1,7 C 91 % 3 lf 1005,8 hPa 0,0 l/m 0 min 0 min 11 W/m 16,7 km/h (3 Bft) 97,87 %
15.01.2016 10:04 2,7 C 2,8 C 1,7 C 91 % 2 lf 1005,9 hPa 0,0 l/m 0 min 0 min 9 W/m 18,8 km/h (3 Bft) 100,00 %
15.01.2016 10:06 2,7 C 2,8 C 1,7 C 91 % 4 lf 1005,9 hPa 0,0 l/m 0 min 2 min 9 W/m 23,0 km/h (4 Bft) 97,87 %
15.01.2016 10:08 2,7 C 2,8 C 1,7 C 91 % 4 lf 1006,0 hPa 0,0 l/m 0 min 0 min 9 W/m 18,8 km/h (3 Bft) 91,49 %
15.01.2016 10:10 2,7 C 2,8 C 1,7 C 91 % 3 lf 1005,9 hPa 0,0 l/m 0 min 0 min 9 W/m 23,0 km/h (4 Bft) 95,74 %
15.01.2016 10:12 2,7 C 2,8 C 1,7 C 91 % 3 lf 1006,0 hPa 0,0 l/m 0 min 0 min 9 W/m 20,9 km/h (4 Bft) 97,83 %
15.01.2016 10:14 2,7 C 2,8 C 1,7 C 91 % 2 lf 1006,1 hPa 0,0 l/m 0 min 0 min 9 W/m 20,9 km/h (4 Bft) 97,87 %
15.01.2016 10:16 2,7 C 2,8 C 1,7 C 91 % 2 lf 1006,2 hPa 0,0 l/m 0 min 0 min 11 W/m 20,9 km/h (4 Bft) 95,74 %
15.01.2016 10:18 2,7 C 2,8 C 1,7 C 92 % 2 lf 1006,1 hPa 0,0 l/m 0 min 0 min 12 W/m 18,8 km/h (3 Bft) 95,74 %
15.01.2016 10:20 2,7 C 2,8 C 1,7 C 91 % 2 lf 1006,2 hPa 0,0 l/m 0 min 0 min 12 W/m 16,7 km/h (3 Bft) 95,74 %
15.01.2016 10:22 2,6 C 2,8 C 1,7 C 91 % 2 lf 1006,2 hPa 0,0 l/m 0 min 0 min 14 W/m 29,3 km/h (5 Bft) 91,49 %
15.01.2016 10:24 2,6 C 2,8 C 1,7 C 91 % 1 lf 1006,2 hPa 0,0 l/m 0 min 0 min 15 W/m 27,2 km/h (4 Bft) 93,48 %
15.01.2016 10:26 2,6 C 2,8 C 1,7 C 91 % 1 lf 1006,3 hPa 0,0 l/m 0 min 0 min 16 W/m 23,0 km/h (4 Bft) 95,74 %
15.01.2016 10:28 2,6 C 2,8 C 1,7 C 92 % 0 lf 1006,3 hPa 0,0 l/m 0 min 0 min 18 W/m 18,8 km/h (3 Bft) 93,62 %
15.01.2016 10:30 2,6 C 2,8 C 1,7 C 92 % 0 lf 1006,3 hPa 0,0 l/m 0 min 0 min 20 W/m 14,6 km/h (3 Bft) 91,49 %
15.01.2016 10:32 2,6 C 2,8 C 1,7 C 92 % 0 lf 1006,4 hPa 0,0 l/m 0 min 0 min 22 W/m 20,9 km/h (4 Bft) 95,74 %
15.01.2016 10:34 2,6 C 2,8 C 1,7 C 92 % 0 lf 1006,3 hPa 0,0 l/m 0 min 0 min 23 W/m 16,7 km/h (3 Bft) 97,83 %
15.01.2016 10:36 2,6 C 2,8 C 1,7 C 92 % 0 lf 1006,5 hPa 0,0 l/m 0 min 0 min 24 W/m 14,6 km/h (3 Bft) 93,48 %
15.01.2016 10:38 2,6 C 2,8 C 1,7 C 92 % 0 lf 1006,4 hPa 0,0 l/m 0 min 0 min 25 W/m 14,6 km/h (3 Bft) 95,74 %
15.01.2016 10:40 2,6 C 2,8 C 1,7 C 92 % 0 lf 1006,5 hPa 0,0 l/m 0 min 0 min 26 W/m 18,8 km/h (3 Bft) 97,87 %
15.01.2016 10:42 2,6 C 2,8 C 1,7 C 92 % 0 lf 1006,6 hPa 0,0 l/m 0 min 0 min 28 W/m 18,8 km/h (3 Bft) 95,74 %
15.01.2016 10:44 2,6 C 2,8 C 1,7 C 92 % 0 lf 1006,7 hPa 0,0 l/m 0 min 0 min 29 W/m 16,7 km/h (3 Bft) 97,87 %
15.01.2016 10:46 2,6 C 2,8 C 1,7 C 92 % 0 lf 1006,7 hPa 0,0 l/m 0 min 0 min 30 W/m 12,6 km/h (3 Bft) 95,65 %
15.01.2016 10:48 2,6 C 3,3 C 1,7 C 92 % 0 lf 1006,8 hPa 0,0 l/m 0 min 0 min 30 W/m 20,9 km/h (4 Bft) 97,87 %
15.01.2016 10:50 2,7 C 3,3 C 1,7 C 92 % 0 lf 1006,9 hPa 0,0 l/m 0 min 0 min 31 W/m 12,6 km/h (3 Bft) 95,74 %
15.01.2016 10:52 2,7 C 3,3 C 1,7 C 92 % 0 lf 1006,8 hPa 0,0 l/m 0 min 0 min 32 W/m 14,6 km/h (3 Bft) 93,62 %
15.01.2016 10:54 2,7 C 3,3 C 1,7 C 92 % 0 lf 1006,9 hPa 0,0 l/m 0 min 0 min 30 W/m 16,7 km/h (3 Bft) 89,36 %
15.01.2016 10:56 2,7 C 3,3 C 1,7 C 92 % 0 lf 1007,1 hPa 0,0 l/m 0 min 0 min 28 W/m 14,6 km/h (3 Bft) 95,74 %
15.01.2016 10:58 2,7 C 3,3 C 1,7 C 92 % 0 lf 1007,1 hPa 0,0 l/m 0 min 0 min 31 W/m 14,6 km/h (3 Bft) 86,96 %
15.01.2016 11:00 2,7 C 3,3 C 1,7 C 92 % 0 lf 1007,1 hPa 0,0 l/m 0 min 0 min 32 W/m 20,9 km/h (4 Bft) 91,49 %
15.01.2016 11:02 2,7 C 3,3 C 1,7 C 92 % 0 lf 1007,2 hPa 0,0 l/m 0 min 0 min 33 W/m 20,9 km/h (4 Bft) 91,49 %
15.01.2016 11:04 2,7 C 3,3 C 1,7 C 92 % 0 lf 1007,2 hPa 0,0 l/m 0 min 0 min 30 W/m 18,8 km/h (3 Bft) 93,62 %
15.01.2016 11:06 2,7 C 3,3 C 1,7 C 92 % 0 lf 1007,2 hPa 0,0 l/m 0 min 0 min 28 W/m 18,8 km/h (3 Bft) 93,62 %
15.01.2016 11:08 2,7 C 3,3 C 1,7 C 92 % 0 lf 1007,3 hPa 0,0 l/m 0 min 0 min 28 W/m 14,6 km/h (3 Bft) 91,49 %
15.01.2016 11:10 2,7 C 3,3 C 1,7 C 92 % 0 lf 1007,3 hPa 0,0 l/m 0 min 0 min 26 W/m 14,6 km/h (3 Bft) 91,30 %
15.01.2016 11:12 2,7 C 3,3 C 1,7 C 92 % 0 lf 1007,3 hPa 0,0 l/m 0 min 0 min 24 W/m 12,6 km/h (3 Bft) 89,36 %
15.01.2016 11:14 2,7 C 3,3 C 1,7 C 92 % 0 lf 1007,3 hPa 0,0 l/m 0 min 0 min 23 W/m 14,6 km/h (3 Bft) 89,36 %
15.01.2016 11:16 2,7 C 3,3 C 1,7 C 92 % 0 lf 1007,4 hPa 0,0 l/m 0 min 0 min 21 W/m 14,6 km/h (3 Bft) 89,36 %
15.01.2016 11:18 2,7 C 3,3 C 1,7 C 92 % 0 lf 1007,4 hPa 0,0 l/m 0 min 0 min 21 W/m 16,7 km/h (3 Bft) 93,62 %
15.01.2016 11:20 2,7 C 3,3 C 1,7 C 92 % 0 lf 1007,4 hPa 0,0 l/m 0 min 0 min 25 W/m 16,7 km/h (3 Bft) 93,62 %
15.01.2016 11:22 2,7 C 3,3 C 1,7 C 92 % 0 lf 1007,4 hPa 0,0 l/m 0 min 0 min 24 W/m 16,7 km/h (3 Bft) 95,65 %
15.01.2016 11:24 2,7 C 3,3 C 1,7 C 92 % 0 lf 1007,4 hPa 0,0 l/m 0 min 0 min 23 W/m 12,6 km/h (3 Bft) 91,67 %
15.01.2016 11:26 2,7 C 3,3 C 1,7 C 92 % 0 lf 1007,5 hPa 0,0 l/m 0 min 0 min 23 W/m 12,6 km/h (3 Bft) 93,62 %
15.01.2016 11:28 2,7 C 3,3 C 1,7 C 92 % 0 lf 1007,4 hPa 0,0 l/m 0 min 0 min 23 W/m 14,6 km/h (3 Bft) 93,62 %
15.01.2016 11:30 2,7 C 3,3 C 1,7 C 92 % 0 lf 1007,4 hPa 0,0 l/m 0 min 0 min 23 W/m 16,7 km/h (3 Bft) 93,62 %
15.01.2016 11:32 2,7 C 3,3 C 1,7 C 92 % 0 lf 1007,5 hPa 0,0 l/m 0 min 0 min 24 W/m 18,8 km/h (3 Bft) 93,62 %
15.01.2016 11:34 2,7 C 3,3 C 1,7 C 92 % 0 lf 1007,5 hPa 0,0 l/m 0 min 0 min 26 W/m 18,8 km/h (3 Bft) 95,65 %
15.01.2016 11:36 2,7 C 3,3 C 1,7 C 92 % 0 lf 1007,5 hPa 0,0 l/m 0 min 0 min 24 W/m 18,8 km/h (3 Bft) 100,00 %
15.01.2016 11:38 2,7 C 3,3 C 1,7 C 92 % 0 lf 1007,5 hPa 0,0 l/m 0 min 0 min 23 W/m 16,7 km/h (3 Bft) 95,74 %
15.01.2016 11:40 2,7 C 3,3 C 1,7 C 92 % 0 lf 1007,6 hPa 0,0 l/m 0 min 0 min 23 W/m 18,8 km/h (3 Bft) 97,87 %
15.01.2016 11:42 2,7 C 3,3 C 1,7 C 92 % 0 lf 1007,6 hPa 0,0 l/m 0 min 0 min 22 W/m 12,6 km/h (3 Bft) 93,48 %
15.01.2016 11:44 2,7 C 3,3 C 1,7 C 92 % 0 lf 1007,6 hPa 0,0 l/m 0 min 0 min 25 W/m 14,6 km/h (3 Bft) 95,74 %
15.01.2016 11:46 2,7 C 3,3 C 1,7 C 92 % 0 lf 1007,6 hPa 0,0 l/m 0 min 0 min 26 W/m 14,6 km/h (3 Bft) 100,00 %
15.01.2016 11:48 2,7 C 3,3 C 1,7 C 92 % 0 lf 1007,6 hPa 0,0 l/m 0 min 0 min 25 W/m 12,6 km/h (3 Bft) 95,74 %
15.01.2016 11:50 2,7 C 3,3 C 1,7 C 92 % 0 lf 1007,6 hPa 0,0 l/m 0 min 0 min 24 W/m 16,7 km/h (3 Bft) 97,87 %
15.01.2016 11:52 2,7 C 3,3 C 1,7 C 92 % 0 lf 1007,7 hPa 0,0 l/m 0 min 0 min 26 W/m 18,8 km/h (3 Bft) 97,87 %
15.01.2016 11:54 2,7 C 3,3 C 1,7 C 92 % 0 lf 1007,7 hPa 0,0 l/m 0 min 0 min 26 W/m 14,6 km/h (3 Bft) 93,48 %
15.01.2016 11:56 2,7 C 3,3 C 1,7 C 92 % 0 lf 1007,7 hPa 0,0 l/m 0 min 0 min 26 W/m 20,9 km/h (4 Bft) 97,87 %
15.01.2016 11:58 2,7 C 3,3 C 1,7 C 92 % 0 lf 1007,7 hPa 0,0 l/m 0 min 0 min 28 W/m 18,8 km/h (3 Bft) 95,74 %
15.01.2016 12:00 2,7 C 3,3 C 1,7 C 92 % 0 lf 1007,8 hPa 0,0 l/m 0 min 0 min 26 W/m 10,5 km/h (2 Bft) 97,87 %
15.01.2016 12:02 2,7 C 3,3 C 1,7 C 92 % 0 lf 1007,8 hPa 0,0 l/m 0 min 0 min 29 W/m 16,7 km/h (3 Bft) 93,62 %
15.01.2016 12:04 2,7 C 3,3 C 1,7 C 92 % 0 lf 1007,9 hPa 0,0 l/m 0 min 0 min 32 W/m 14,6 km/h (3 Bft) 95,74 %
15.01.2016 12:06 2,7 C 3,3 C 1,7 C 92 % 0 lf 1007,9 hPa 0,0 l/m 0 min 0 min 31 W/m 16,7 km/h (3 Bft) 95,65 %
15.01.2016 12:08 2,7 C 3,3 C 2,2 C 92 % 0 lf 1008,0 hPa 0,0 l/m 0 min 0 min 32 W/m 10,5 km/h (2 Bft) 95,74 %
15.01.2016 12:10 2,7 C 3,3 C 2,2 C 92 % 0 lf 1008,0 hPa 0,0 l/m 0 min 0 min 38 W/m 14,6 km/h (3 Bft) 95,74 %
15.01.2016 12:12 2,7 C 3,3 C 2,2 C 92 % 0 lf 1008,0 hPa 0,0 l/m 0 min 0 min 40 W/m 14,6 km/h (3 Bft) 97,87 %
15.01.2016 12:14 2,7 C 3,3 C 2,2 C 92 % 0 lf 1008,0 hPa 0,0 l/m 0 min 0 min 40 W/m 16,7 km/h (3 Bft) 97,87 %
15.01.2016 12:16 2,7 C 3,3 C 2,2 C 92 % 0 lf 1008,0 hPa 0,0 l/m 0 min 0 min 37 W/m 14,6 km/h (3 Bft) 97,87 %
15.01.2016 12:18 2,7 C 3,3 C 2,2 C 92 % 0 lf 1008,0 hPa 0,0 l/m 0 min 0 min 35 W/m 12,6 km/h (3 Bft) 97,83 %
15.01.2016 12:20 2,8 C 3,3 C 2,2 C 92 % 0 lf 1008,0 hPa 0,0 l/m 0 min 0 min 35 W/m 12,6 km/h (3 Bft) 97,87 %
15.01.2016 12:22 2,8 C 3,3 C 2,2 C 92 % 0 lf 1008,1 hPa 0,0 l/m 0 min 0 min 32 W/m 8,4 km/h (2 Bft) 100,00 %
15.01.2016 12:24 2,8 C 3,3 C 2,2 C 92 % 0 lf 1008,1 hPa 0,0 l/m 0 min 0 min 29 W/m 14,6 km/h (3 Bft) 95,74 %
15.01.2016 12:26 2,8 C 3,3 C 2,2 C 92 % 0 lf 1008,1 hPa 0,0 l/m 0 min 0 min 31 W/m 16,7 km/h (3 Bft) 100,00 %
15.01.2016 12:28 2,8 C 3,3 C 2,2 C 92 % 0 lf 1008,1 hPa 0,0 l/m 0 min 0 min 30 W/m 10,5 km/h (2 Bft) 100,00 %
15.01.2016 12:30 2,8 C 3,3 C 2,2 C 92 % 0 lf 1008,2 hPa 0,0 l/m 0 min 0 min 28 W/m 8,4 km/h (2 Bft) 100,00 %
15.01.2016 12:32 2,8 C 3,3 C 2,2 C 92 % 0 lf 1008,2 hPa 0,0 l/m 0 min 0 min 29 W/m 12,6 km/h (3 Bft) 100,00 %
15.01.2016 12:34 2,8 C 3,3 C 2,2 C 92 % 0 lf 1008,2 hPa 0,0 l/m 0 min 0 min 33 W/m 12,6 km/h (3 Bft) 100,00 %
15.01.2016 12:36 2,8 C 3,3 C 2,2 C 92 % 0 lf 1008,3 hPa 0,0 l/m 0 min 0 min 39 W/m 16,7 km/h (3 Bft) 97,87 %
15.01.2016 12:38 2,8 C 3,3 C 2,2 C 92 % 0 lf 1008,2 hPa 0,0 l/m 0 min 0 min 39 W/m 8,4 km/h (2 Bft) 100,00 %
15.01.2016 12:40 2,8 C 3,3 C 2,2 C 92 % 0 lf 1008,3 hPa 0,0 l/m 0 min 0 min 40 W/m 18,8 km/h (3 Bft) 97,83 %
15.01.2016 12:42 2,8 C 3,3 C 2,2 C 92 % 0 lf 1008,3 hPa 0,0 l/m 0 min 0 min 40 W/m 18,8 km/h (3 Bft) 97,87 %
15.01.2016 12:44 2,8 C 3,3 C 2,2 C 92 % 0 lf 1008,3 hPa 0,0 l/m 0 min 0 min 38 W/m 12,6 km/h (3 Bft) 100,00 %
15.01.2016 12:46 2,8 C 3,3 C 2,2 C 92 % 0 lf 1008,4 hPa 0,0 l/m 0 min 0 min 35 W/m 16,7 km/h (3 Bft) 95,74 %
15.01.2016 12:48 2,8 C 3,3 C 2,2 C 92 % 0 lf 1008,4 hPa 0,0 l/m 0 min 0 min 31 W/m 18,8 km/h (3 Bft) 100,00 %
15.01.2016 12:50 2,8 C 3,3 C 2,2 C 92 % 0 lf 1008,4 hPa 0,0 l/m 0 min 0 min 30 W/m 14,6 km/h (3 Bft) 100,00 %
15.01.2016 12:52 2,8 C 3,3 C 2,2 C 92 % 0 lf 1008,5 hPa 0,0 l/m 0 min 0 min 29 W/m 18,8 km/h (3 Bft) 97,83 %
15.01.2016 12:54 2,8 C 3,3 C 2,2 C 92 % 0 lf 1008,5 hPa 0,0 l/m 0 min 0 min 26 W/m 14,6 km/h (3 Bft) 100,00 %
15.01.2016 12:56 2,8 C 3,3 C 2,2 C 92 % 0 lf 1008,5 hPa 0,0 l/m 0 min 0 min 31 W/m 14,6 km/h (3 Bft) 100,00 %
15.01.2016 12:58 2,9 C 3,3 C 2,2 C 92 % 0 lf 1008,5 hPa 0,0 l/m 0 min 0 min 43 W/m 18,8 km/h (3 Bft) 97,87 %
15.01.2016 13:00 2,8 C 3,3 C 2,2 C 92 % 0 lf 1008,5 hPa 0,0 l/m 0 min 0 min 49 W/m 18,8 km/h (3 Bft) 100,00 %
15.01.2016 13:02 2,8 C 3,3 C 2,2 C 92 % 0 lf 1008,5 hPa 0,0 l/m 0 min 0 min 49 W/m 18,8 km/h (3 Bft) 100,00 %
15.01.2016 13:04 2,9 C 3,3 C 2,2 C 92 % 0 lf 1008,6 hPa 0,0 l/m 0 min 0 min 43 W/m 14,6 km/h (3 Bft) 95,65 %
15.01.2016 13:06 2,9 C 3,3 C 2,2 C 92 % 0 lf 1008,6 hPa 0,0 l/m 0 min 0 min 42 W/m 12,6 km/h (3 Bft) 100,00 %
15.01.2016 13:08 2,9 C 3,3 C 2,2 C 92 % 0 lf 1008,6 hPa 0,0 l/m 0 min 0 min 41 W/m 12,6 km/h (3 Bft) 97,87 %
15.01.2016 13:10 2,9 C 3,3 C 2,2 C 92 % 0 lf 1008,6 hPa 0,0 l/m 0 min 0 min 46 W/m 10,5 km/h (2 Bft) 95,74 %
15.01.2016 13:12 2,9 C 3,3 C 2,2 C 92 % 0 lf 1008,7 hPa 0,0 l/m 0 min 0 min 53 W/m 16,7 km/h (3 Bft) 95,74 %
15.01.2016 13:14 2,9 C 3,9 C 2,2 C 92 % 0 lf 1008,7 hPa 0,0 l/m 0 min 0 min 61 W/m 16,7 km/h (3 Bft) 100,00 %
15.01.2016 13:16 2,9 C 3,9 C 2,2 C 92 % 0 lf 1008,6 hPa 0,0 l/m 0 min 0 min 76 W/m 20,9 km/h (4 Bft) 100,00 %
15.01.2016 13:18 2,9 C 3,9 C 2,2 C 92 % 0 lf 1008,6 hPa 0,0 l/m 0 min 0 min 87 W/m 23,0 km/h (4 Bft) 100,00 %
15.01.2016 13:20 2,9 C 3,9 C 2,8 C 92 % 0 lf 1008,7 hPa 0,0 l/m 0 min 0 min 91 W/m 10,5 km/h (2 Bft) 97,87 %
15.01.2016 13:22 2,9 C 3,9 C 2,8 C 92 % 0 lf 1008,8 hPa 0,0 l/m 0 min 0 min 91 W/m 14,6 km/h (3 Bft) 97,87 %
15.01.2016 13:24 3,0 C 4,4 C 2,8 C 92 % 0 lf 1008,8 hPa 0,0 l/m 0 min 0 min 91 W/m 16,7 km/h (3 Bft) 100,00 %
15.01.2016 13:26 3,0 C 4,4 C 2,8 C 92 % 0 lf 1008,8 hPa 0,0 l/m 0 min 0 min 92 W/m 14,6 km/h (3 Bft) 97,87 %
15.01.2016 13:28 3,1 C 4,4 C 2,8 C 92 % 0 lf 1008,8 hPa 0,0 l/m 0 min 0 min 100 W/m 10,5 km/h (2 Bft) 95,65 %
15.01.2016 13:30 3,1 C 4,4 C 2,8 C 92 % 0 lf 1008,8 hPa 0,0 l/m 0 min 0 min 108 W/m 16,7 km/h (3 Bft) 93,62 %
15.01.2016 13:32 3,1 C 4,4 C 2,8 C 92 % 0 lf 1008,9 hPa 0,0 l/m 0 min 0 min 102 W/m 16,7 km/h (3 Bft) 97,87 %
15.01.2016 13:34 3,1 C 4,4 C 2,8 C 92 % 0 lf 1008,9 hPa 0,0 l/m 0 min 0 min 98 W/m 12,6 km/h (3 Bft) 95,74 %
15.01.2016 13:36 3,1 C 4,4 C 2,8 C 92 % 0 lf 1009,0 hPa 0,0 l/m 0 min 0 min 99 W/m 16,7 km/h (3 Bft) 98,15 %
15.01.2016 13:38 3,2 C 4,4 C 2,8 C 92 % 0 lf 1009,0 hPa 0,0 l/m 0 min 0 min 102 W/m 14,6 km/h (3 Bft) 95,74 %
15.01.2016 13:40 3,2 C 4,4 C 2,8 C 92 % 0 lf 1009,0 hPa 0,0 l/m 0 min 0 min 109 W/m 16,7 km/h (3 Bft) 91,43 %
15.01.2016 13:42 3,2 C 4,4 C 2,8 C 92 % 0 lf 1009,0 hPa 0,0 l/m 0 min 0 min 108 W/m 14,6 km/h (3 Bft) 93,48 %
15.01.2016 13:44 3,2 C 4,4 C 2,8 C 92 % 0 lf 1009,0 hPa 0,0 l/m 0 min 0 min 104 W/m 14,6 km/h (3 Bft) 94,92 %
15.01.2016 13:46 3,2 C 4,4 C 2,8 C 92 % 0 lf 1009,0 hPa 0,0 l/m 0 min 0 min 99 W/m 25,1 km/h (4 Bft) 97,14 %
15.01.2016 13:48 3,2 C 4,4 C 2,8 C 92 % 0 lf 1009,1 hPa 0,0 l/m 0 min 0 min 85 W/m 23,0 km/h (4 Bft) 91,53 %
15.01.2016 13:50 3,2 C 3,9 C 2,8 C 92 % 0 lf 1009,1 hPa 0,0 l/m 0 min 0 min 72 W/m 18,8 km/h (3 Bft) 95,74 %
15.01.2016 13:52 3,2 C 3,9 C 2,8 C 91 % 0 lf 1009,1 hPa 0,0 l/m 0 min 0 min 74 W/m 20,9 km/h (4 Bft) 94,29 %
15.01.2016 13:54 3,2 C 3,9 C 2,8 C 91 % 0 lf 1009,2 hPa 0,0 l/m 0 min 0 min 72 W/m 18,8 km/h (3 Bft) 93,10 %
15.01.2016 13:56 3,2 C 3,9 C 2,8 C 91 % 0 lf 1009,3 hPa 0,0 l/m 0 min 0 min 70 W/m 16,7 km/h (3 Bft) 91,43 %
15.01.2016 13:58 3,2 C 3,9 C 2,8 C 91 % 0 lf 1009,3 hPa 0,0 l/m 0 min 0 min 61 W/m 23,0 km/h (4 Bft) 91,53 %
15.01.2016 14:00 3,2 C 3,9 C 2,8 C 91 % 0 lf 1009,3 hPa 0,0 l/m 0 min 0 min 49 W/m 18,8 km/h (3 Bft) 97,14 %
15.01.2016 14:02 3,2 C 3,9 C 2,2 C 91 % 0 lf 1009,4 hPa 0,0 l/m 0 min 0 min 44 W/m 20,9 km/h (4 Bft) 89,83 %
15.01.2016 14:04 3,2 C 3,9 C 2,2 C 91 % 0 lf 1009,4 hPa 0,0 l/m 0 min 0 min 40 W/m 18,8 km/h (3 Bft) 91,30 %
15.01.2016 14:06 3,2 C 3,9 C 2,2 C 91 % 0 lf 1009,5 hPa 0,0 l/m 0 min 0 min 37 W/m 18,8 km/h (3 Bft) 91,43 %
15.01.2016 14:08 3,2 C 3,9 C 2,2 C 91 % 0 lf 1009,5 hPa 0,0 l/m 0 min 0 min 34 W/m 18,8 km/h (3 Bft) 93,22 %
15.01.2016 14:10 3,2 C 3,9 C 2,2 C 91 % 0 lf 1009,5 hPa 0,0 l/m 0 min 0 min 34 W/m 12,6 km/h (3 Bft) 91,43 %
15.01.2016 14:12 3,2 C 3,9 C 2,2 C 91 % 0 lf 1009,5 hPa 0,0 l/m 0 min 0 min 35 W/m 6,3 km/h (2 Bft) 98,00 %
15.01.2016 14:14 3,2 C 3,9 C 2,2 C 91 % 0 lf 1009,5 hPa 0,0 l/m 0 min 0 min 35 W/m 12,6 km/h (3 Bft) 97,87 %
15.01.2016 14:16 3,2 C 3,3 C 2,2 C 91 % 0 lf 1009,5 hPa 0,0 l/m 0 min 0 min 33 W/m 18,8 km/h (3 Bft) 97,83 %
15.01.2016 14:18 3,2 C 3,3 C 2,2 C 91 % 0 lf 1009,5 hPa 0,0 l/m 0 min 0 min 34 W/m 18,8 km/h (3 Bft) 95,74 %
15.01.2016 14:20 3,2 C 3,3 C 2,2 C 91 % 0 lf 1009,7 hPa 0,0 l/m 0 min 0 min 36 W/m 18,8 km/h (3 Bft) 97,87 %
15.01.2016 14:22 3,2 C 3,3 C 2,2 C 91 % 0 lf 1009,7 hPa 0,0 l/m 0 min 0 min 39 W/m 14,6 km/h (3 Bft) 93,62 %
15.01.2016 14:24 3,2 C 3,3 C 2,2 C 91 % 0 lf 1009,7 hPa 0,0 l/m 0 min 0 min 44 W/m 16,7 km/h (3 Bft) 97,87 %
15.01.2016 14:26 3,2 C 3,9 C 2,2 C 91 % 0 lf 1009,8 hPa 0,0 l/m 0 min 0 min 52 W/m 12,6 km/h (3 Bft) 97,87 %
15.01.2016 14:28 3,2 C 3,9 C 2,2 C 91 % 0 lf 1009,8 hPa 0,0 l/m 0 min 0 min 63 W/m 16,7 km/h (3 Bft) 97,83 %
15.01.2016 14:30 3,2 C 3,9 C 2,2 C 91 % 0 lf 1009,8 hPa 0,0 l/m 0 min 0 min 70 W/m 10,5 km/h (2 Bft) 95,74 %
15.01.2016 14:32 3,2 C 3,9 C 2,8 C 91 % 0 lf 1009,8 hPa 0,0 l/m 0 min 0 min 70 W/m 14,6 km/h (3 Bft) 97,87 %
15.01.2016 14:34 3,2 C 3,9 C 2,8 C 90 % 0 lf 1009,8 hPa 0,0 l/m 0 min 0 min 73 W/m 8,4 km/h (2 Bft) 97,87 %
15.01.2016 14:36 3,2 C 3,9 C 2,2 C 91 % 0 lf 1009,9 hPa 0,0 l/m 0 min 0 min 81 W/m 10,5 km/h (2 Bft) 95,92 %
15.01.2016 14:38 3,2 C 4,4 C 2,2 C 91 % 0 lf 1009,9 hPa 0,0 l/m 0 min 0 min 91 W/m 10,5 km/h (2 Bft) 95,65 %
15.01.2016 14:40 3,2 C 4,4 C 2,2 C 91 % 0 lf 1010,0 hPa 0,0 l/m 0 min 0 min 98 W/m 14,6 km/h (3 Bft) 91,49 %
15.01.2016 14:42 3,2 C 4,4 C 2,2 C 91 % 0 lf 1010,0 hPa 0,0 l/m 0 min 0 min 106 W/m 8,4 km/h (2 Bft) 95,74 %
15.01.2016 14:44 3,2 C 5,0 C 2,2 C 91 % 0 lf 1010,0 hPa 0,0 l/m 2 min 0 min 130 W/m 10,5 km/h (2 Bft) 95,74 %
15.01.2016 14:46 3,2 C 7,2 C 2,8 C 91 % 0 lf 1010,0 hPa 0,0 l/m 2 min 0 min 177 W/m 16,7 km/h (3 Bft) 93,62 %
15.01.2016 14:48 3,2 C 8,3 C 2,8 C 91 % 0 lf 1010,0 hPa 0,0 l/m 2 min 0 min 171 W/m 14,6 km/h (3 Bft) 95,74 %
15.01.2016 14:50 3,3 C 8,3 C 2,8 C 91 % 0 lf 1010,1 hPa 0,0 l/m 2 min 0 min 152 W/m 14,6 km/h (3 Bft) 95,65 %
15.01.2016 14:52 3,3 C 7,2 C 2,2 C 91 % 0 lf 1010,1 hPa 0,0 l/m 0 min 0 min 97 W/m 12,6 km/h (3 Bft) 95,74 %
15.01.2016 14:54 3,3 C 6,7 C 2,2 C 91 % 0 lf 1010,1 hPa 0,0 l/m 0 min 0 min 97 W/m 12,6 km/h (3 Bft) 97,87 %
15.01.2016 14:56 3,3 C 6,1 C 2,2 C 91 % 0 lf 1010,2 hPa 0,0 l/m 2 min 0 min 127 W/m 12,6 km/h (3 Bft) 91,49 %
15.01.2016 14:58 3,3 C 6,1 C 2,2 C 91 % 0 lf 1010,2 hPa 0,0 l/m 2 min 0 min 127 W/m 12,6 km/h (3 Bft) 97,87 %
15.01.2016 15:00 3,3 C 5,6 C 2,2 C 91 % 0 lf 1010,2 hPa 0,0 l/m 2 min 0 min 125 W/m 10,5 km/h (2 Bft) 93,48 %
15.01.2016 15:02 3,3 C 5,0 C 2,2 C 91 % 0 lf 1010,3 hPa 0,0 l/m 0 min 0 min 89 W/m 14,6 km/h (3 Bft) 97,87 %
15.01.2016 15:04 3,3 C 4,4 C 2,2 C 91 % 0 lf 1010,3 hPa 0,0 l/m 0 min 0 min 60 W/m 16,7 km/h (3 Bft) 95,74 %
15.01.2016 15:06 3,3 C 4,4 C 2,2 C 91 % 0 lf 1010,3 hPa 0,0 l/m 0 min 0 min 64 W/m 8,4 km/h (2 Bft) 93,62 %
15.01.2016 15:08 3,3 C 3,9 C 2,2 C 91 % 0 lf 1010,4 hPa 0,0 l/m 0 min 0 min 66 W/m 18,8 km/h (3 Bft) 97,87 %
15.01.2016 15:10 3,3 C 3,9 C 2,2 C 91 % 0 lf 1010,4 hPa 0,0 l/m 0 min 0 min 68 W/m 12,6 km/h (3 Bft) 97,87 %
15.01.2016 15:12 3,3 C 3,9 C 2,2 C 91 % 0 lf 1010,4 hPa 0,0 l/m 0 min 0 min 74 W/m 14,6 km/h (3 Bft) 93,48 %
15.01.2016 15:14 3,3 C 3,9 C 2,2 C 91 % 0 lf 1010,5 hPa 0,0 l/m 0 min 0 min 74 W/m 14,6 km/h (3 Bft) 95,74 %
15.01.2016 15:16 3,3 C 3,9 C 2,2 C 91 % 0 lf 1010,5 hPa 0,0 l/m 0 min 0 min 78 W/m 10,5 km/h (2 Bft) 97,87 %
15.01.2016 15:18 3,3 C 3,9 C 2,2 C 91 % 0 lf 1010,5 hPa 0,0 l/m 0 min 0 min 74 W/m 10,5 km/h (2 Bft) 97,87 %
15.01.2016 15:20 3,2 C 3,9 C 2,2 C 91 % 0 lf 1010,6 hPa 0,0 l/m 0 min 0 min 63 W/m 12,6 km/h (3 Bft) 97,87 %
15.01.2016 15:22 3,2 C 3,9 C 1,7 C 90 % 0 lf 1010,6 hPa 0,0 l/m 0 min 0 min 51 W/m 6,3 km/h (2 Bft) 97,87 %
15.01.2016 15:24 3,2 C 3,9 C 1,7 C 90 % 0 lf 1010,6 hPa 0,0 l/m 0 min 0 min 45 W/m 14,6 km/h (3 Bft) 95,65 %
15.01.2016 15:26 3,2 C 3,3 C 1,7 C 90 % 0 lf 1010,7 hPa 0,0 l/m 0 min 0 min 45 W/m 12,6 km/h (3 Bft) 95,74 %
15.01.2016 15:28 3,2 C 3,3 C 1,7 C 90 % 0 lf 1010,7 hPa 0,0 l/m 0 min 0 min 40 W/m 10,5 km/h (2 Bft) 95,74 %
15.01.2016 15:30 3,2 C 3,3 C 1,7 C 90 % 0 lf 1010,8 hPa 0,0 l/m 0 min 0 min 30 W/m 12,6 km/h (3 Bft) 95,74 %
15.01.2016 15:32 3,2 C 3,3 C 2,2 C 90 % 0 lf 1010,8 hPa 0,0 l/m 0 min 0 min 42 W/m 6,3 km/h (2 Bft) 93,62 %
15.01.2016 15:34 3,1 C 3,3 C 2,2 C 90 % 0 lf 1010,8 hPa 0,0 l/m 0 min 0 min 63 W/m 14,6 km/h (3 Bft) 95,74 %
15.01.2016 15:36 3,1 C 3,3 C 2,2 C 90 % 0 lf 1010,8 hPa 0,0 l/m 0 min 0 min 70 W/m 12,6 km/h (3 Bft) 95,65 %
15.01.2016 15:38 3,1 C 3,9 C 2,2 C 90 % 0 lf 1010,9 hPa 0,0 l/m 0 min 0 min 54 W/m 12,6 km/h (3 Bft) 93,62 %
15.01.2016 15:40 3,1 C 3,9 C 2,2 C 90 % 0 lf 1010,9 hPa 0,0 l/m 0 min 0 min 48 W/m 8,4 km/h (2 Bft) 95,74 %
15.01.2016 15:42 3,1 C 3,9 C 2,2 C 90 % 0 lf 1011,0 hPa 0,0 l/m 0 min 0 min 59 W/m 10,5 km/h (2 Bft) 97,87 %
15.01.2016 15:44 3,1 C 3,9 C 2,2 C 91 % 0 lf 1011,0 hPa 0,0 l/m 0 min 0 min 65 W/m 10,5 km/h (2 Bft) 97,87 %
15.01.2016 15:46 3,1 C 3,9 C 2,2 C 91 % 0 lf 1011,1 hPa 0,0 l/m 2 min 0 min 68 W/m 14,6 km/h (3 Bft) 95,74 %
15.01.2016 15:48 3,1 C 3,9 C 2,2 C 91 % 0 lf 1011,1 hPa 0,0 l/m 0 min 0 min 58 W/m 18,8 km/h (3 Bft) 97,83 %
15.01.2016 15:50 3,1 C 3,9 C 2,2 C 91 % 0 lf 1011,1 hPa 0,0 l/m 0 min 0 min 42 W/m 14,6 km/h (3 Bft) 95,74 %
15.01.2016 15:52 3,1 C 3,9 C 2,2 C 91 % 0 lf 1011,1 hPa 0,0 l/m 0 min 0 min 33 W/m 16,7 km/h (3 Bft) 95,74 %
15.01.2016 15:54 3,1 C 3,9 C 2,2 C 91 % 0 lf 1011,1 hPa 0,0 l/m 0 min 0 min 30 W/m 16,7 km/h (3 Bft) 97,87 %
15.01.2016 15:56 3,1 C 3,9 C 2,2 C 91 % 0 lf 1011,2 hPa 0,0 l/m 0 min 0 min 31 W/m 12,6 km/h (3 Bft) 95,74 %
15.01.2016 15:58 3,1 C 3,9 C 2,2 C 91 % 0 lf 1011,2 hPa 0,0 l/m 0 min 0 min 38 W/m 10,5 km/h (2 Bft) 95,74 %
15.01.2016 16:00 3,1 C 3,9 C 2,2 C 91 % 0 lf 1011,3 hPa 0,0 l/m 0 min 0 min 45 W/m 8,4 km/h (2 Bft) 97,83 %
15.01.2016 16:02 3,1 C 3,9 C 2,2 C 91 % 0 lf 1011,3 hPa 0,0 l/m 0 min 0 min 44 W/m 8,4 km/h (2 Bft) 95,74 %
15.01.2016 16:04 3,1 C 3,9 C 2,2 C 91 % 0 lf 1011,4 hPa 0,0 l/m 0 min 0 min 40 W/m 10,5 km/h (2 Bft) 97,87 %
15.01.2016 16:06 3,1 C 3,3 C 2,2 C 91 % 0 lf 1011,4 hPa 0,0 l/m 0 min 0 min 39 W/m 12,6 km/h (3 Bft) 87,23 %
15.01.2016 16:08 3,1 C 3,3 C 2,2 C 91 % 0 lf 1011,4 hPa 0,0 l/m 2 min 0 min 43 W/m 12,6 km/h (3 Bft) 95,74 %
15.01.2016 16:10 3,1 C 3,3 C 2,2 C 91 % 0 lf 1011,4 hPa 0,0 l/m 2 min 0 min 48 W/m 16,7 km/h (3 Bft) 93,62 %
15.01.2016 16:12 3,1 C 3,3 C 2,2 C 91 % 0 lf 1011,6 hPa 0,0 l/m 2 min 0 min 47 W/m 10,5 km/h (2 Bft) 97,83 %
15.01.2016 16:14 3,1 C 3,3 C 2,2 C 91 % 0 lf 1011,7 hPa 0,0 l/m 2 min 0 min 41 W/m 8,4 km/h (2 Bft) 95,74 %
15.01.2016 16:16 3,1 C 3,3 C 2,2 C 91 % 0 lf 1011,7 hPa 0,0 l/m 0 min 0 min 33 W/m 10,5 km/h (2 Bft) 95,74 %
15.01.2016 16:18 3,1 C 3,3 C 2,2 C 91 % 0 lf 1011,8 hPa 0,0 l/m 0 min 0 min 32 W/m 8,4 km/h (2 Bft) 97,87 %
15.01.2016 16:20 3,1 C 3,3 C 2,2 C 91 % 0 lf 1011,8 hPa 0,0 l/m 2 min 0 min 33 W/m 12,6 km/h (3 Bft) 97,87 %
15.01.2016 16:22 3,1 C 3,3 C 2,2 C 91 % 0 lf 1011,8 hPa 0,0 l/m 2 min 0 min 33 W/m 10,5 km/h (2 Bft) 95,65 %
15.01.2016 16:24 3,1 C 3,3 C 2,2 C 91 % 0 lf 1011,9 hPa 0,0 l/m 2 min 0 min 32 W/m 12,6 km/h (3 Bft) 95,74 %
15.01.2016 16:26 3,1 C 3,3 C 2,2 C 91 % 0 lf 1012,0 hPa 0,0 l/m 2 min 0 min 31 W/m 12,6 km/h (3 Bft) 97,87 %
15.01.2016 16:28 3,1 C 3,3 C 2,2 C 91 % 0 lf 1011,9 hPa 0,0 l/m 2 min 0 min 25 W/m 12,6 km/h (3 Bft) 97,87 %
15.01.2016 16:30 3,1 C 3,3 C 2,2 C 91 % 0 lf 1012,0 hPa 0,0 l/m 0 min 0 min 19 W/m 12,6 km/h (3 Bft) 97,87 %
15.01.2016 16:32 3,1 C 3,3 C 2,2 C 91 % 0 lf 1012,0 hPa 0,0 l/m 0 min 0 min 14 W/m 12,6 km/h (3 Bft) 91,49 %
15.01.2016 16:34 3,1 C 3,3 C 2,2 C 91 % 0 lf 1012,0 hPa 0,0 l/m 0 min 0 min 12 W/m 12,6 km/h (3 Bft) 95,65 %
15.01.2016 16:36 3,1 C 3,3 C 2,2 C 91 % 0 lf 1012,1 hPa 0,0 l/m 0 min 0 min 12 W/m 12,6 km/h (3 Bft) 97,87 %
15.01.2016 16:38 3,1 C 3,3 C 2,2 C 91 % 0 lf 1012,1 hPa 0,0 l/m 0 min 0 min 10 W/m 10,5 km/h (2 Bft) 95,74 %
15.01.2016 16:40 3,1 C 3,3 C 2,2 C 91 % 0 lf 1012,1 hPa 0,0 l/m 0 min 0 min 8 W/m 8,4 km/h (2 Bft) 95,74 %
15.01.2016 16:42 3,1 C 3,3 C 1,7 C 91 % 0 lf 1012,1 hPa 0,0 l/m 0 min 0 min 7 W/m 12,6 km/h (3 Bft) 97,87 %
15.01.2016 16:44 3,0 C 3,3 C 1,7 C 91 % 0 lf 1012,2 hPa 0,0 l/m 0 min 0 min 7 W/m 12,6 km/h (3 Bft) 97,87 %
15.01.2016 16:46 3,0 C 3,3 C 1,7 C 91 % 0 lf 1012,2 hPa 0,0 l/m 0 min 0 min 5 W/m 10,5 km/h (2 Bft) 97,83 %
15.01.2016 16:48 3,0 C 3,3 C 1,7 C 91 % 0 lf 1012,4 hPa 0,0 l/m 0 min 0 min 5 W/m 12,6 km/h (3 Bft) 95,74 %
15.01.2016 16:50 3,0 C 3,3 C 1,7 C 91 % 0 lf 1012,4 hPa 0,0 l/m 0 min 0 min 5 W/m 12,6 km/h (3 Bft) 95,74 %
15.01.2016 16:52 3,0 C 3,3 C 1,7 C 91 % 0 lf 1012,4 hPa 0,0 l/m 0 min 0 min 5 W/m 8,4 km/h (2 Bft) 97,87 %
15.01.2016 16:54 3,0 C 3,3 C 1,7 C 91 % 0 lf 1012,4 hPa 0,0 l/m 0 min 0 min 5 W/m 10,5 km/h (2 Bft) 93,62 %
15.01.2016 16:56 2,9 C 2,8 C 1,7 C 91 % 0 lf 1012,4 hPa 0,0 l/m 0 min 0 min 5 W/m 10,5 km/h (2 Bft) 95,74 %
15.01.2016 16:58 2,9 C 2,8 C 1,7 C 91 % 0 lf 1012,5 hPa 0,0 l/m 0 min 0 min 5 W/m 12,6 km/h (3 Bft) 97,83 %
15.01.2016 17:00 2,9 C 2,8 C 1,7 C 91 % 0 lf 1012,5 hPa 0,0 l/m 0 min 0 min 5 W/m 10,5 km/h (2 Bft) 97,87 %
15.01.2016 17:02 2,9 C 2,8 C 1,7 C 91 % 0 lf 1012,5 hPa 0,0 l/m 0 min 0 min 5 W/m 8,4 km/h (2 Bft) 100,00 %
15.01.2016 17:04 2,9 C 2,8 C 1,7 C 91 % 0 lf 1012,6 hPa 0,0 l/m 0 min 0 min 5 W/m 10,5 km/h (2 Bft) 97,87 %
15.01.2016 17:06 2,9 C 2,8 C 1,7 C 91 % 0 lf 1012,6 hPa 0,0 l/m 0 min 0 min 1 W/m 10,5 km/h (2 Bft) 95,74 %
15.01.2016 17:08 2,9 C 2,8 C 1,7 C 91 % 0 lf 1012,6 hPa 0,0 l/m 0 min 0 min 0 W/m 8,4 km/h (2 Bft) 97,87 %
15.01.2016 17:10 2,9 C 2,8 C 1,7 C 91 % 0 lf 1012,7 hPa 0,0 l/m 0 min 0 min 0 W/m 10,5 km/h (2 Bft) 97,83 %
15.01.2016 17:12 2,9 C 2,8 C 1,7 C 91 % 0 lf 1012,7 hPa 0,0 l/m 0 min 0 min 0 W/m 8,4 km/h (2 Bft) 95,74 %
15.01.2016 17:14 2,9 C 2,8 C 1,7 C 91 % 0 lf 1012,7 hPa 0,0 l/m 0 min 0 min 0 W/m 8,4 km/h (2 Bft) 97,87 %
15.01.2016 17:16 2,9 C 2,8 C 1,7 C 91 % 0 lf 1012,7 hPa 0,0 l/m 0 min 0 min 0 W/m 10,5 km/h (2 Bft) 97,87 %
15.01.2016 17:18 2,9 C 2,8 C 1,7 C 91 % 0 lf 1012,7 hPa 0,0 l/m 0 min 0 min 0 W/m 10,5 km/h (2 Bft) 93,62 %
15.01.2016 17:20 2,9 C 2,8 C 1,7 C 91 % 0 lf 1012,7 hPa 0,0 l/m 0 min 0 min 0 W/m 12,6 km/h (3 Bft) 95,74 %
15.01.2016 17:22 2,9 C 2,8 C 1,7 C 91 % 0 lf 1012,8 hPa 0,0 l/m 0 min 0 min 0 W/m 8,4 km/h (2 Bft) 95,65 %
15.01.2016 17:24 2,9 C 2,8 C 1,7 C 91 % 0 lf 1012,8 hPa 0,0 l/m 0 min 0 min 0 W/m 14,6 km/h (3 Bft) 95,74 %
15.01.2016 17:26 2,9 C 2,8 C 1,7 C 91 % 0 lf 1012,8 hPa 0,0 l/m 0 min 0 min 0 W/m 10,5 km/h (2 Bft) 95,74 %
15.01.2016 17:28 2,9 C 2,8 C 1,7 C 91 % 0 lf 1012,9 hPa 0,0 l/m 0 min 0 min 0 W/m 12,6 km/h (3 Bft) 93,62 %
15.01.2016 17:30 2,9 C 2,8 C 1,7 C 91 % 0 lf 1012,9 hPa 0,0 l/m 0 min 0 min 0 W/m 12,6 km/h (3 Bft) 95,74 %
15.01.2016 17:32 2,9 C 2,8 C 1,7 C 91 % 0 lf 1012,9 hPa 0,0 l/m 0 min 0 min 0 W/m 12,6 km/h (3 Bft) 97,83 %
15.01.2016 17:34 2,9 C 2,8 C 1,7 C 91 % 0 lf 1012,9 hPa 0,0 l/m 0 min 0 min 0 W/m 10,5 km/h (2 Bft) 93,62 %
15.01.2016 17:36 2,9 C 2,8 C 1,7 C 91 % 0 lf 1013,0 hPa 0,0 l/m 0 min 0 min 0 W/m 16,7 km/h (3 Bft) 95,74 %
15.01.2016 17:38 2,9 C 2,8 C 1,7 C 91 % 0 lf 1013,0 hPa 0,0 l/m 0 min 0 min 0 W/m 12,6 km/h (3 Bft) 95,74 %
15.01.2016 17:40 2,9 C 2,8 C 1,7 C 91 % 0 lf 1013,0 hPa 0,0 l/m 0 min 0 min 0 W/m 10,5 km/h (2 Bft) 93,62 %
15.01.2016 17:42 2,9 C 2,8 C 1,7 C 91 % 0 lf 1013,0 hPa 0,0 l/m 0 min 0 min 0 W/m 12,6 km/h (3 Bft) 95,74 %
15.01.2016 17:44 2,9 C 2,8 C 1,7 C 91 % 0 lf 1013,1 hPa 0,0 l/m 0 min 0 min 0 W/m 8,4 km/h (2 Bft) 95,65 %
15.01.2016 17:46 2,9 C 2,8 C 1,7 C 91 % 0 lf 1013,1 hPa 0,0 l/m 0 min 0 min 0 W/m 10,5 km/h (2 Bft) 91,49 %
15.01.2016 17:48 2,9 C 2,8 C 1,7 C 91 % 0 lf 1013,1 hPa 0,0 l/m 0 min 0 min 0 W/m 8,4 km/h (2 Bft) 95,74 %
15.01.2016 17:50 2,9 C 2,8 C 1,7 C 91 % 0 lf 1013,2 hPa 0,0 l/m 0 min 0 min 0 W/m 10,5 km/h (2 Bft) 97,87 %
15.01.2016 17:52 2,9 C 2,8 C 1,7 C 91 % 0 lf 1013,2 hPa 0,0 l/m 0 min 0 min 0 W/m 14,6 km/h (3 Bft) 97,87 %
15.01.2016 17:54 2,9 C 3,3 C 1,7 C 91 % 0 lf 1013,2 hPa 0,0 l/m 0 min 0 min 0 W/m 12,6 km/h (3 Bft) 97,87 %
15.01.2016 17:56 2,9 C 3,3 C 1,7 C 91 % 0 lf 1013,2 hPa 0,0 l/m 0 min 0 min 0 W/m 14,6 km/h (3 Bft) 95,65 %
15.01.2016 17:58 2,9 C 3,3 C 1,7 C 91 % 0 lf 1013,3 hPa 0,0 l/m 0 min 0 min 0 W/m 14,6 km/h (3 Bft) 100,00 %
15.01.2016 18:00 2,9 C 3,3 C 1,7 C 91 % 0 lf 1013,4 hPa 0,0 l/m 0 min 0 min 0 W/m 12,6 km/h (3 Bft) 95,74 %
15.01.2016 18:02 2,8 C 3,3 C 1,7 C 91 % 0 lf 1013,4 hPa 0,0 l/m 0 min 0 min 0 W/m 14,6 km/h (3 Bft) 95,74 %
15.01.2016 18:04 2,9 C 3,3 C 1,7 C 91 % 0 lf 1013,4 hPa 0,0 l/m 0 min 0 min 0 W/m 18,8 km/h (3 Bft) 95,74 %
15.01.2016 18:06 2,9 C 3,3 C 1,7 C 91 % 0 lf 1013,5 hPa 0,0 l/m 0 min 0 min 0 W/m 14,6 km/h (3 Bft) 100,00 %
15.01.2016 18:08 2,9 C 3,3 C 1,7 C 91 % 0 lf 1013,6 hPa 0,0 l/m 0 min 0 min 0 W/m 20,9 km/h (4 Bft) 100,00 %
15.01.2016 18:10 2,9 C 3,3 C 1,7 C 91 % 0 lf 1013,6 hPa 0,0 l/m 0 min 0 min 0 W/m 18,8 km/h (3 Bft) 97,87 %
15.01.2016 18:12 2,9 C 3,3 C 1,7 C 91 % 0 lf 1013,6 hPa 0,0 l/m 0 min 0 min 0 W/m 18,8 km/h (3 Bft) 95,74 %
15.01.2016 18:14 2,9 C 3,3 C 1,7 C 91 % 0 lf 1013,7 hPa 0,0 l/m 0 min 0 min 0 W/m 14,6 km/h (3 Bft) 100,00 %
15.01.2016 18:16 2,9 C 3,3 C 1,7 C 92 % 0 lf 1013,7 hPa 0,0 l/m 0 min 0 min 0 W/m 18,8 km/h (3 Bft) 97,87 %
15.01.2016 18:18 2,9 C 3,3 C 1,7 C 92 % 0 lf 1013,8 hPa 0,0 l/m 0 min 0 min 0 W/m 16,7 km/h (3 Bft) 97,87 %
15.01.2016 18:20 2,9 C 3,3 C 1,7 C 92 % 0 lf 1013,9 hPa 0,0 l/m 0 min 0 min 0 W/m 18,8 km/h (3 Bft) 97,83 %
15.01.2016 18:22 2,9 C 3,3 C 1,7 C 92 % 0 lf 1013,9 hPa 0,0 l/m 0 min 0 min 0 W/m 23,0 km/h (4 Bft) 95,74 %
15.01.2016 18:24 2,9 C 3,3 C 1,7 C 92 % 0 lf 1014,0 hPa 0,0 l/m 0 min 0 min 0 W/m 23,0 km/h (4 Bft) 100,00 %
15.01.2016 18:26 2,9 C 3,3 C 1,7 C 92 % 0 lf 1014,0 hPa 0,0 l/m 0 min 0 min 0 W/m 16,7 km/h (3 Bft) 97,87 %
15.01.2016 18:28 2,9 C 3,3 C 1,7 C 92 % 0 lf 1014,0 hPa 0,0 l/m 0 min 0 min 0 W/m 20,9 km/h (4 Bft) 97,87 %
15.01.2016 18:30 2,9 C 3,3 C 1,7 C 92 % 0 lf 1014,0 hPa 0,0 l/m 0 min 0 min 0 W/m 16,7 km/h (3 Bft) 97,83 %
15.01.2016 18:32 2,9 C 3,3 C 1,7 C 92 % 0 lf 1014,0 hPa 0,0 l/m 0 min 0 min 0 W/m 23,0 km/h (4 Bft) 100,00 %
15.01.2016 18:34 2,9 C 3,3 C 1,7 C 92 % 0 lf 1014,1 hPa 0,0 l/m 0 min 0 min 0 W/m 23,0 km/h (4 Bft) 97,87 %
15.01.2016 18:36 2,9 C 3,3 C 1,7 C 92 % 0 lf 1014,1 hPa 0,0 l/m 0 min 0 min 0 W/m 12,6 km/h (3 Bft) 100,00 %
15.01.2016 18:38 2,9 C 3,3 C 1,7 C 92 % 0 lf 1014,2 hPa 0,0 l/m 0 min 0 min 0 W/m 16,7 km/h (3 Bft) 95,74 %
15.01.2016 18:40 2,9 C 3,3 C 1,7 C 92 % 0 lf 1014,2 hPa 0,0 l/m 0 min 0 min 0 W/m 12,6 km/h (3 Bft) 95,74 %
15.01.2016 18:42 2,9 C 3,3 C 1,7 C 92 % 0 lf 1014,2 hPa 0,0 l/m 0 min 0 min 0 W/m 16,7 km/h (3 Bft) 100,00 %
15.01.2016 18:44 2,9 C 3,3 C 1,7 C 92 % 0 lf 1014,3 hPa 0,0 l/m 0 min 0 min 0 W/m 10,5 km/h (2 Bft) 93,62 %
15.01.2016 18:46 2,9 C 2,8 C 1,7 C 92 % 0 lf 1014,3 hPa 0,0 l/m 0 min 0 min 0 W/m 16,7 km/h (3 Bft) 93,62 %
15.01.2016 18:48 2,9 C 2,8 C 1,7 C 92 % 0 lf 1014,3 hPa 0,0 l/m 0 min 0 min 0 W/m 18,8 km/h (3 Bft) 97,87 %
15.01.2016 18:50 2,9 C 2,8 C 1,7 C 92 % 0 lf 1014,4 hPa 0,0 l/m 0 min 0 min 0 W/m 12,6 km/h (3 Bft) 95,74 %
15.01.2016 18:52 2,9 C 2,8 C 1,7 C 92 % 0 lf 1014,5 hPa 0,0 l/m 0 min 0 min 0 W/m 12,6 km/h (3 Bft) 91,49 %
15.01.2016 18:54 2,9 C 2,8 C 1,7 C 92 % 0 lf 1014,5 hPa 0,0 l/m 0 min 0 min 0 W/m 12,6 km/h (3 Bft) 93,48 %
15.01.2016 18:56 2,9 C 2,8 C 1,7 C 92 % 0 lf 1014,4 hPa 0,0 l/m 0 min 0 min 0 W/m 16,7 km/h (3 Bft) 91,49 %
15.01.2016 18:58 2,9 C 2,8 C 1,7 C 92 % 0 lf 1014,5 hPa 0,0 l/m 0 min 0 min 0 W/m 10,5 km/h (2 Bft) 93,62 %
15.01.2016 19:00 2,9 C 2,8 C 1,7 C 92 % 0 lf 1014,5 hPa 0,0 l/m 0 min 0 min 0 W/m 16,7 km/h (3 Bft) 95,74 %
15.01.2016 19:02 2,9 C 2,8 C 1,7 C 92 % 0 lf 1014,5 hPa 0,0 l/m 0 min 0 min 0 W/m 14,6 km/h (3 Bft) 91,49 %
15.01.2016 19:04 2,9 C 2,8 C 1,7 C 92 % 0 lf 1014,6 hPa 0,0 l/m 0 min 0 min 0 W/m 12,6 km/h (3 Bft) 95,74 %
15.01.2016 19:06 2,8 C 2,8 C 1,7 C 92 % 0 lf 1014,6 hPa 0,0 l/m 0 min 0 min 0 W/m 14,6 km/h (3 Bft) 95,65 %
15.01.2016 19:08 2,8 C 2,8 C 1,7 C 92 % 0 lf 1014,6 hPa 0,0 l/m 0 min 0 min 0 W/m 16,7 km/h (3 Bft) 93,62 %
15.01.2016 19:10 2,8 C 2,8 C 1,7 C 92 % 0 lf 1014,6 hPa 0,0 l/m 0 min 0 min 0 W/m 10,5 km/h (2 Bft) 93,62 %
15.01.2016 19:12 2,8 C 2,8 C 1,7 C 92 % 0 lf 1014,7 hPa 0,0 l/m 0 min 0 min 0 W/m 12,6 km/h (3 Bft) 95,74 %
15.01.2016 19:14 2,8 C 2,8 C 1,7 C 92 % 0 lf 1014,7 hPa 0,0 l/m 0 min 0 min 0 W/m 18,8 km/h (3 Bft) 93,62 %
15.01.2016 19:16 2,8 C 2,8 C 1,7 C 92 % 0 lf 1014,7 hPa 0,0 l/m 0 min 0 min 0 W/m 12,6 km/h (3 Bft) 93,62 %
15.01.2016 19:18 2,8 C 2,8 C 1,7 C 92 % 0 lf 1014,7 hPa 0,0 l/m 0 min 0 min 0 W/m 12,6 km/h (3 Bft) 91,30 %
15.01.2016 19:20 2,8 C 2,8 C 1,7 C 92 % 0 lf 1014,7 hPa 0,0 l/m 0 min 0 min 0 W/m 12,6 km/h (3 Bft) 93,62 %
15.01.2016 19:22 2,8 C 2,8 C 1,7 C 92 % 0 lf 1014,7 hPa 0,0 l/m 0 min 0 min 0 W/m 18,8 km/h (3 Bft) 93,62 %
15.01.2016 19:24 2,8 C 2,8 C 1,7 C 92 % 0 lf 1014,8 hPa 0,0 l/m 0 min 0 min 0 W/m 10,5 km/h (2 Bft) 93,62 %
15.01.2016 19:26 2,8 C 2,8 C 1,7 C 92 % 0 lf 1014,8 hPa 0,0 l/m 0 min 0 min 0 W/m 12,6 km/h (3 Bft) 91,49 %
15.01.2016 19:28 2,8 C 2,8 C 1,7 C 92 % 0 lf 1014,8 hPa 0,0 l/m 0 min 0 min 0 W/m 18,8 km/h (3 Bft) 93,62 %
15.01.2016 19:30 2,8 C 2,8 C 1,7 C 92 % 0 lf 1014,9 hPa 0,0 l/m 0 min 0 min 0 W/m 18,8 km/h (3 Bft) 95,65 %
15.01.2016 19:32 2,8 C 2,8 C 1,7 C 92 % 0 lf 1014,9 hPa 0,0 l/m 0 min 0 min 0 W/m 10,5 km/h (2 Bft) 95,74 %
15.01.2016 19:34 2,8 C 2,8 C 1,7 C 92 % 0 lf 1014,9 hPa 0,0 l/m 0 min 0 min 0 W/m 16,7 km/h (3 Bft) 93,62 %
15.01.2016 19:36 2,8 C 2,8 C 1,7 C 92 % 0 lf 1015,0 hPa 0,0 l/m 0 min 0 min 0 W/m 16,7 km/h (3 Bft) 93,62 %
15.01.2016 19:38 2,8 C 2,8 C 1,7 C 92 % 0 lf 1015,0 hPa 0,0 l/m 0 min 0 min 0 W/m 14,6 km/h (3 Bft) 95,74 %
15.01.2016 19:40 2,8 C 2,8 C 1,7 C 92 % 0 lf 1015,0 hPa 0,0 l/m 0 min 0 min 0 W/m 16,7 km/h (3 Bft) 95,74 %
15.01.2016 19:42 2,8 C 2,8 C 1,7 C 92 % 0 lf 1015,0 hPa 0,0 l/m 0 min 0 min 0 W/m 14,6 km/h (3 Bft) 95,65 %
15.01.2016 19:44 2,8 C 2,8 C 1,7 C 92 % 0 lf 1015,1 hPa 0,0 l/m 0 min 0 min 0 W/m 14,6 km/h (3 Bft) 93,62 %
15.01.2016 19:46 2,8 C 2,8 C 1,7 C 92 % 0 lf 1015,1 hPa 0,0 l/m 0 min 0 min 0 W/m 12,6 km/h (3 Bft) 95,74 %
15.01.2016 19:48 2,8 C 2,8 C 1,7 C 92 % 0 lf 1015,1 hPa 0,0 l/m 0 min 0 min 0 W/m 14,6 km/h (3 Bft) 89,36 %
15.01.2016 19:50 2,8 C 2,8 C 1,7 C 92 % 0 lf 1015,2 hPa 0,0 l/m 0 min 0 min 0 W/m 14,6 km/h (3 Bft) 97,87 %
15.01.2016 19:52 2,8 C 2,8 C 1,7 C 92 % 0 lf 1015,3 hPa 0,0 l/m 0 min 0 min 0 W/m 14,6 km/h (3 Bft) 96,15 %
15.01.2016 19:54 2,8 C 2,8 C 1,7 C 92 % 0 lf 1015,3 hPa 0,0 l/m 0 min 0 min 0 W/m 18,8 km/h (3 Bft) 97,87 %
15.01.2016 19:56 2,7 C 2,8 C 1,7 C 92 % 0 lf 1015,4 hPa 0,0 l/m 0 min 0 min 0 W/m 18,8 km/h (3 Bft) 97,87 %
15.01.2016 19:58 2,7 C 2,8 C 1,7 C 92 % 0 lf 1015,4 hPa 0,0 l/m 0 min 0 min 0 W/m 16,7 km/h (3 Bft) 95,74 %
15.01.2016 20:00 2,7 C 2,8 C 1,7 C 92 % 0 lf 1015,5 hPa 0,0 l/m 0 min 0 min 0 W/m 16,7 km/h (3 Bft) 97,87 %
15.01.2016 20:02 2,7 C 2,8 C 1,7 C 92 % 0 lf 1015,5 hPa 0,0 l/m 0 min 0 min 0 W/m 12,6 km/h (3 Bft) 93,62 %
15.01.2016 20:04 2,7 C 2,8 C 1,7 C 92 % 0 lf 1015,5 hPa 0,0 l/m 0 min 0 min 0 W/m 16,7 km/h (3 Bft) 97,83 %
15.01.2016 20:06 2,7 C 2,8 C 1,7 C 92 % 0 lf 1015,5 hPa 0,0 l/m 0 min 0 min 0 W/m 14,6 km/h (3 Bft) 97,87 %
15.01.2016 20:08 2,7 C 2,8 C 1,7 C 92 % 0 lf 1015,5 hPa 0,0 l/m 0 min 0 min 0 W/m 14,6 km/h (3 Bft) 93,62 %
15.01.2016 20:10 2,7 C 2,8 C 1,7 C 92 % 0 lf 1015,6 hPa 0,0 l/m 0 min 0 min 0 W/m 12,6 km/h (3 Bft) 97,87 %
15.01.2016 20:12 2,7 C 2,8 C 1,7 C 92 % 0 lf 1015,7 hPa 0,0 l/m 0 min 0 min 0 W/m 16,7 km/h (3 Bft) 95,74 %
15.01.2016 20:14 2,7 C 2,8 C 1,7 C 92 % 0 lf 1015,7 hPa 0,0 l/m 0 min 0 min 0 W/m 20,9 km/h (4 Bft) 97,87 %
15.01.2016 20:16 2,7 C 2,8 C 1,7 C 92 % 0 lf 1015,7 hPa 0,0 l/m 0 min 0 min 0 W/m 14,6 km/h (3 Bft) 97,83 %
15.01.2016 20:18 2,7 C 2,8 C 1,7 C 92 % 0 lf 1015,7 hPa 0,0 l/m 0 min 0 min 0 W/m 12,6 km/h (3 Bft) 95,74 %
15.01.2016 20:20 2,7 C 2,8 C 1,7 C 92 % 0 lf 1015,8 hPa 0,0 l/m 0 min 0 min 0 W/m 12,6 km/h (3 Bft) 87,23 %
15.01.2016 20:22 2,7 C 2,8 C 1,7 C 92 % 0 lf 1015,8 hPa 0,0 l/m 0 min 0 min 0 W/m 8,4 km/h (2 Bft) 95,74 %
15.01.2016 20:24 2,7 C 2,8 C 1,7 C 93 % 0 lf 1015,8 hPa 0,0 l/m 0 min 0 min 0 W/m 16,7 km/h (3 Bft) 93,62 %
15.01.2016 20:26 2,7 C 2,8 C 1,7 C 93 % 0 lf 1015,8 hPa 0,0 l/m 0 min 0 min 0 W/m 18,8 km/h (3 Bft) 91,49 %
15.01.2016 20:28 2,7 C 2,8 C 1,7 C 93 % 0 lf 1015,8 hPa 0,0 l/m 0 min 0 min 0 W/m 18,8 km/h (3 Bft) 95,65 %
15.01.2016 20:30 2,7 C 2,8 C 1,7 C 93 % 0 lf 1015,9 hPa 0,0 l/m 0 min 0 min 0 W/m 16,7 km/h (3 Bft) 97,87 %
15.01.2016 20:32 2,7 C 2,8 C 1,7 C 93 % 0 lf 1015,8 hPa 0,0 l/m 0 min 0 min 0 W/m 18,8 km/h (3 Bft) 97,87 %
15.01.2016 20:34 2,7 C 2,8 C 1,7 C 93 % 0 lf 1015,9 hPa 0,0 l/m 0 min 0 min 0 W/m 16,7 km/h (3 Bft) 97,87 %
15.01.2016 20:36 2,7 C 2,8 C 1,7 C 93 % 0 lf 1015,9 hPa 0,0 l/m 0 min 0 min 0 W/m 18,8 km/h (3 Bft) 97,87 %
15.01.2016 20:38 2,7 C 2,8 C 1,7 C 93 % 0 lf 1015,9 hPa 0,0 l/m 0 min 0 min 0 W/m 14,6 km/h (3 Bft) 93,62 %
15.01.2016 20:40 2,7 C 2,8 C 1,7 C 93 % 0 lf 1015,9 hPa 0,0 l/m 0 min 0 min 0 W/m 14,6 km/h (3 Bft) 95,65 %
15.01.2016 20:42 2,7 C 2,8 C 1,7 C 93 % 0 lf 1016,0 hPa 0,0 l/m 0 min 0 min 0 W/m 8,4 km/h (2 Bft) 97,87 %
15.01.2016 20:44 2,7 C 2,8 C 1,7 C 93 % 0 lf 1016,1 hPa 0,0 l/m 0 min 0 min 0 W/m 16,7 km/h (3 Bft) 97,87 %
15.01.2016 20:46 2,7 C 2,8 C 1,7 C 93 % 0 lf 1016,1 hPa 0,0 l/m 0 min 0 min 0 W/m 16,7 km/h (3 Bft) 97,87 %
15.01.2016 20:48 2,7 C 2,8 C 1,7 C 93 % 0 lf 1016,2 hPa 0,0 l/m 0 min 0 min 0 W/m 18,8 km/h (3 Bft) 97,87 %
15.01.2016 20:50 2,7 C 2,8 C 1,7 C 93 % 0 lf 1016,2 hPa 0,0 l/m 0 min 0 min 0 W/m 16,7 km/h (3 Bft) 100,00 %
15.01.2016 20:52 2,7 C 2,8 C 1,7 C 93 % 0 lf 1016,2 hPa 0,0 l/m 0 min 0 min 0 W/m 16,7 km/h (3 Bft) 100,00 %
15.01.2016 20:54 2,7 C 2,8 C 1,7 C 93 % 0 lf 1016,2 hPa 0,0 l/m 0 min 0 min 0 W/m 16,7 km/h (3 Bft) 95,74 %
15.01.2016 20:56 2,6 C 2,8 C 1,7 C 92 % 0 lf 1016,2 hPa 0,0 l/m 0 min 0 min 0 W/m 14,6 km/h (3 Bft) 95,74 %
15.01.2016 20:58 2,6 C 2,8 C 1,7 C 92 % 0 lf 1016,3 hPa 0,0 l/m 0 min 0 min 0 W/m 14,6 km/h (3 Bft) 100,00 %
15.01.2016 21:00 2,6 C 2,8 C 1,7 C 92 % 0 lf 1016,3 hPa 0,0 l/m 0 min 0 min 0 W/m 14,6 km/h (3 Bft) 100,00 %
15.01.2016 21:02 2,6 C 2,8 C 1,7 C 92 % 0 lf 1016,4 hPa 0,0 l/m 0 min 0 min 0 W/m 18,8 km/h (3 Bft) 97,87 %
15.01.2016 21:04 2,6 C 2,8 C 1,7 C 92 % 0 lf 1016,5 hPa 0,0 l/m 0 min 0 min 0 W/m 10,5 km/h (2 Bft) 95,65 %
15.01.2016 21:06 2,6 C 2,8 C 1,7 C 92 % 0 lf 1016,5 hPa 0,0 l/m 0 min 0 min 0 W/m 14,6 km/h (3 Bft) 97,87 %
15.01.2016 21:08 2,6 C 2,8 C 1,7 C 93 % 0 lf 1016,5 hPa 0,0 l/m 0 min 0 min 0 W/m 12,6 km/h (3 Bft) 95,74 %
15.01.2016 21:10 2,6 C 2,8 C 1,7 C 93 % 0 lf 1016,6 hPa 0,0 l/m 0 min 0 min 0 W/m 14,6 km/h (3 Bft) 93,62 %
15.01.2016 21:12 2,6 C 2,8 C 1,7 C 93 % 0 lf 1016,6 hPa 0,0 l/m 0 min 0 min 0 W/m 12,6 km/h (3 Bft) 93,62 %
15.01.2016 21:14 2,6 C 2,8 C 1,7 C 93 % 0 lf 1016,6 hPa 0,0 l/m 0 min 0 min 0 W/m 14,6 km/h (3 Bft) 97,83 %
15.01.2016 21:16 2,6 C 2,8 C 1,7 C 93 % 0 lf 1016,7 hPa 0,0 l/m 0 min 0 min 0 W/m 8,4 km/h (2 Bft) 95,74 %
15.01.2016 21:18 2,6 C 2,8 C 1,7 C 93 % 0 lf 1016,7 hPa 0,0 l/m 0 min 0 min 0 W/m 14,6 km/h (3 Bft) 97,87 %
15.01.2016 21:20 2,6 C 2,8 C 1,7 C 93 % 0 lf 1016,8 hPa 0,0 l/m 0 min 0 min 0 W/m 14,6 km/h (3 Bft) 95,74 %
15.01.2016 21:22 2,6 C 2,8 C 1,7 C 93 % 0 lf 1016,9 hPa 0,0 l/m 0 min 0 min 0 W/m 10,5 km/h (2 Bft) 93,62 %
15.01.2016 21:24 2,6 C 2,8 C 1,7 C 93 % 0 lf 1016,9 hPa 0,0 l/m 0 min 0 min 0 W/m 8,4 km/h (2 Bft) 97,87 %
15.01.2016 21:26 2,6 C 2,8 C 1,7 C 93 % 0 lf 1017,0 hPa 0,0 l/m 0 min 0 min 0 W/m 10,5 km/h (2 Bft) 95,65 %
15.01.2016 21:28 2,6 C 2,8 C 1,7 C 93 % 0 lf 1017,0 hPa 0,0 l/m 0 min 0 min 0 W/m 14,6 km/h (3 Bft) 95,74 %
15.01.2016 21:30 2,6 C 2,8 C 1,7 C 93 % 0 lf 1017,0 hPa 0,0 l/m 0 min 0 min 0 W/m 14,6 km/h (3 Bft) 93,62 %
15.01.2016 21:32 2,6 C 2,8 C 1,7 C 93 % 0 lf 1017,0 hPa 0,0 l/m 0 min 0 min 0 W/m 12,6 km/h (3 Bft) 94,44 %
15.01.2016 21:34 2,6 C 2,8 C 1,7 C 93 % 0 lf 1017,1 hPa 0,0 l/m 0 min 0 min 0 W/m 16,7 km/h (3 Bft) 95,74 %
15.01.2016 21:36 2,6 C 2,8 C 1,7 C 93 % 0 lf 1017,1 hPa 0,0 l/m 0 min 0 min 0 W/m 14,6 km/h (3 Bft) 98,00 %
15.01.2016 21:38 2,5 C 2,8 C 1,7 C 93 % 0 lf 1017,1 hPa 0,0 l/m 0 min 0 min 0 W/m 12,6 km/h (3 Bft) 97,87 %
15.01.2016 21:40 2,5 C 2,8 C 1,7 C 93 % 0 lf 1017,1 hPa 0,0 l/m 0 min 0 min 0 W/m 23,0 km/h (4 Bft) 95,65 %
15.01.2016 21:42 2,4 C 2,8 C 1,7 C 93 % 0 lf 1017,1 hPa 0,0 l/m 0 min 0 min 0 W/m 20,9 km/h (4 Bft) 95,74 %
15.01.2016 21:44 2,4 C 2,8 C 1,7 C 92 % 0 lf 1017,2 hPa 0,0 l/m 0 min 0 min 0 W/m 16,7 km/h (3 Bft) 97,87 %
15.01.2016 21:46 2,4 C 2,8 C 1,7 C 93 % 0 lf 1017,1 hPa 0,0 l/m 0 min 0 min 0 W/m 18,8 km/h (3 Bft) 95,74 %
15.01.2016 21:48 2,4 C 2,8 C 1,7 C 92 % 0 lf 1017,2 hPa 0,0 l/m 0 min 0 min 0 W/m 14,6 km/h (3 Bft) 95,74 %
15.01.2016 21:50 2,4 C 2,8 C 1,7 C 92 % 0 lf 1017,2 hPa 0,0 l/m 0 min 0 min 0 W/m 14,6 km/h (3 Bft) 93,75 %
15.01.2016 21:52 2,3 C 2,8 C 1,1 C 92 % 0 lf 1017,2 hPa 0,0 l/m 0 min 0 min 0 W/m 10,5 km/h (2 Bft) 97,87 %
15.01.2016 21:54 2,4 C 2,8 C 1,1 C 92 % 0 lf 1017,2 hPa 0,0 l/m 0 min 0 min 0 W/m 14,6 km/h (3 Bft) 97,87 %
15.01.2016 21:56 2,3 C 2,8 C 1,1 C 92 % 0 lf 1017,3 hPa 0,0 l/m 0 min 0 min 0 W/m 14,6 km/h (3 Bft) 93,62 %
15.01.2016 21:58 2,3 C 2,2 C 1,1 C 92 % 0 lf 1017,3 hPa 0,0 l/m 0 min 0 min 0 W/m 10,5 km/h (2 Bft) 97,87 %
15.01.2016 22:00 2,3 C 2,2 C 1,1 C 92 % 0 lf 1017,3 hPa 0,0 l/m 0 min 0 min 0 W/m 10,5 km/h (2 Bft) 95,65 %
15.01.2016 22:02 2,3 C 2,2 C 1,1 C 92 % 0 lf 1017,3 hPa 0,0 l/m 0 min 0 min 0 W/m 8,4 km/h (2 Bft) 95,74 %
15.01.2016 22:04 2,3 C 2,2 C 1,1 C 92 % 0 lf 1017,4 hPa 0,0 l/m 0 min 0 min 0 W/m 8,4 km/h (2 Bft) 97,87 %
15.01.2016 22:06 2,3 C 2,2 C 1,1 C 92 % 0 lf 1017,4 hPa 0,0 l/m 0 min 0 min 0 W/m 10,5 km/h (2 Bft) 97,87 %
15.01.2016 22:08 2,3 C 2,2 C 1,1 C 92 % 0 lf 1017,4 hPa 0,0 l/m 0 min 0 min 0 W/m 10,5 km/h (2 Bft) 100,00 %
15.01.2016 22:10 2,2 C 2,2 C 1,1 C 92 % 0 lf 1017,4 hPa 0,0 l/m 0 min 0 min 0 W/m 14,6 km/h (3 Bft) 100,00 %
15.01.2016 22:12 2,2 C 2,2 C 1,1 C 92 % 0 lf 1017,4 hPa 0,0 l/m 0 min 0 min 0 W/m 10,5 km/h (2 Bft) 97,83 %
15.01.2016 22:14 2,2 C 2,2 C 1,1 C 92 % 0 lf 1017,5 hPa 0,0 l/m 0 min 0 min 0 W/m 14,6 km/h (3 Bft) 97,87 %
15.01.2016 22:16 2,2 C 2,2 C 1,1 C 92 % 0 lf 1017,5 hPa 0,0 l/m 0 min 0 min 0 W/m 12,6 km/h (3 Bft) 100,00 %
15.01.2016 22:18 2,2 C 2,2 C 1,1 C 92 % 0 lf 1017,5 hPa 0,0 l/m 0 min 0 min 0 W/m 8,4 km/h (2 Bft) 93,62 %
15.01.2016 22:20 2,2 C 2,2 C 1,1 C 92 % 0 lf 1017,5 hPa 0,0 l/m 0 min 0 min 0 W/m 8,4 km/h (2 Bft) 100,00 %
15.01.2016 22:22 2,2 C 2,2 C 1,1 C 92 % 0 lf 1017,6 hPa 0,0 l/m 0 min 0 min 0 W/m 8,4 km/h (2 Bft) 100,00 %
15.01.2016 22:24 2,1 C 2,2 C 1,1 C 92 % 0 lf 1017,5 hPa 0,0 l/m 0 min 0 min 0 W/m 8,4 km/h (2 Bft) 100,00 %
15.01.2016 22:26 2,1 C 2,2 C 1,1 C 91 % 0 lf 1017,6 hPa 0,0 l/m 0 min 0 min 0 W/m 8,4 km/h (2 Bft) 100,00 %
15.01.2016 22:28 2,1 C 2,2 C 1,1 C 92 % 0 lf 1017,6 hPa 0,0 l/m 0 min 0 min 0 W/m 10,5 km/h (2 Bft) 100,00 %
15.01.2016 22:30 2,1 C 1,7 C 1,1 C 91 % 0 lf 1017,6 hPa 0,0 l/m 0 min 0 min 0 W/m 8,4 km/h (2 Bft) 100,00 %
15.01.2016 22:32 2,1 C 1,7 C 1,1 C 91 % 0 lf 1017,7 hPa 0,0 l/m 0 min 0 min 0 W/m 8,4 km/h (2 Bft) 97,87 %
15.01.2016 22:34 2,1 C 1,7 C 1,1 C 91 % 0 lf 1017,7 hPa 0,0 l/m 0 min 0 min 0 W/m 14,6 km/h (3 Bft) 100,00 %
15.01.2016 22:36 2,1 C 1,7 C 1,1 C 91 % 0 lf 1017,7 hPa 0,0 l/m 0 min 0 min 0 W/m 8,4 km/h (2 Bft) 100,00 %
15.01.2016 22:38 2,1 C 1,7 C 1,1 C 91 % 0 lf 1017,7 hPa 0,0 l/m 0 min 0 min 0 W/m 10,5 km/h (2 Bft) 97,87 %
15.01.2016 22:40 2,0 C 2,2 C 1,1 C 91 % 0 lf 1017,8 hPa 0,0 l/m 0 min 0 min 0 W/m 12,6 km/h (3 Bft) 100,00 %
15.01.2016 22:42 2,0 C 2,2 C 1,1 C 91 % 0 lf 1017,7 hPa 0,0 l/m 0 min 0 min 0 W/m 10,5 km/h (2 Bft) 93,62 %
15.01.2016 22:44 2,0 C 2,2 C 1,1 C 91 % 0 lf 1017,8 hPa 0,0 l/m 0 min 0 min 0 W/m 10,5 km/h (2 Bft) 95,74 %
15.01.2016 22:46 2,0 C 2,2 C 1,1 C 91 % 0 lf 1017,8 hPa 0,0 l/m 0 min 0 min 0 W/m 18,8 km/h (3 Bft) 100,00 %
15.01.2016 22:48 2,0 C 2,2 C 1,1 C 91 % 0 lf 1017,9 hPa 0,0 l/m 0 min 0 min 0 W/m 10,5 km/h (2 Bft) 100,00 %
15.01.2016 22:50 2,0 C 2,2 C 1,1 C 91 % 0 lf 1017,9 hPa 0,0 l/m 0 min 0 min 0 W/m 12,6 km/h (3 Bft) 100,00 %
15.01.2016 22:52 1,9 C 2,2 C 1,1 C 91 % 0 lf 1017,9 hPa 0,0 l/m 0 min 0 min 0 W/m 8,4 km/h (2 Bft) 97,87 %
15.01.2016 22:54 1,9 C 2,2 C 1,1 C 91 % 0 lf 1017,9 hPa 0,0 l/m 0 min 0 min 0 W/m 8,4 km/h (2 Bft) 97,87 %
15.01.2016 22:56 1,9 C 2,2 C 1,1 C 91 % 0 lf 1018,0 hPa 0,0 l/m 0 min 0 min 0 W/m 12,6 km/h (3 Bft) 97,87 %
15.01.2016 22:58 1,9 C 2,2 C 1,1 C 91 % 0 lf 1018,1 hPa 0,0 l/m 0 min 0 min 0 W/m 10,5 km/h (2 Bft) 91,49 %
15.01.2016 23:00 1,9 C 2,2 C 1,1 C 91 % 0 lf 1018,2 hPa 0,0 l/m 0 min 0 min 0 W/m 10,5 km/h (2 Bft) 93,48 %
15.01.2016 23:02 1,9 C 2,2 C 1,1 C 91 % 0 lf 1018,2 hPa 0,0 l/m 0 min 0 min 0 W/m 10,5 km/h (2 Bft) 95,74 %
15.01.2016 23:04 1,9 C 2,2 C 1,1 C 91 % 0 lf 1018,2 hPa 0,0 l/m 0 min 0 min 0 W/m 10,5 km/h (2 Bft) 93,62 %
15.01.2016 23:06 1,9 C 2,2 C 1,1 C 91 % 0 lf 1018,2 hPa 0,0 l/m 0 min 0 min 0 W/m 12,6 km/h (3 Bft) 95,74 %
15.01.2016 23:08 1,9 C 2,2 C 1,1 C 91 % 0 lf 1018,2 hPa 0,0 l/m 0 min 0 min 0 W/m 12,6 km/h (3 Bft) 95,74 %
15.01.2016 23:10 1,9 C 2,2 C 1,1 C 91 % 0 lf 1018,2 hPa 0,0 l/m 0 min 0 min 0 W/m 12,6 km/h (3 Bft) 91,30 %
15.01.2016 23:12 1,9 C 2,2 C 1,1 C 91 % 0 lf 1018,2 hPa 0,0 l/m 0 min 0 min 0 W/m 10,5 km/h (2 Bft) 91,49 %
15.01.2016 23:14 1,9 C 2,2 C 1,1 C 91 % 0 lf 1018,2 hPa 0,0 l/m 0 min 0 min 0 W/m 8,4 km/h (2 Bft) 93,62 %
15.01.2016 23:16 1,9 C 2,2 C 1,1 C 91 % 0 lf 1018,2 hPa 0,0 l/m 0 min 0 min 0 W/m 6,3 km/h (2 Bft) 85,11 %
15.01.2016 23:18 1,9 C 2,2 C 1,1 C 91 % 0 lf 1018,2 hPa 0,0 l/m 0 min 0 min 0 W/m 10,5 km/h (2 Bft) 93,62 %
15.01.2016 23:20 1,9 C 2,2 C 1,1 C 91 % 0 lf 1018,2 hPa 0,0 l/m 0 min 0 min 0 W/m 8,4 km/h (2 Bft) 93,62 %
15.01.2016 23:22 1,9 C 2,2 C 1,1 C 91 % 0 lf 1018,2 hPa 0,0 l/m 0 min 0 min 0 W/m 10,5 km/h (2 Bft) 91,49 %
15.01.2016 23:24 1,9 C 2,2 C 1,1 C 91 % 0 lf 1018,3 hPa 0,0 l/m 0 min 0 min 0 W/m 8,4 km/h (2 Bft) 93,48 %
15.01.2016 23:26 1,9 C 2,2 C 1,1 C 91 % 0 lf 1018,3 hPa 0,0 l/m 0 min 0 min 0 W/m 8,4 km/h (2 Bft) 93,62 %
15.01.2016 23:28 1,9 C 2,2 C 1,1 C 91 % 0 lf 1018,3 hPa 0,0 l/m 0 min 0 min 0 W/m 8,4 km/h (2 Bft) 91,49 %
15.01.2016 23:30 1,9 C 2,2 C 1,1 C 91 % 0 lf 1018,4 hPa 0,0 l/m 0 min 0 min 0 W/m 8,4 km/h (2 Bft) 89,36 %
15.01.2016 23:32 1,9 C 2,2 C 1,1 C 91 % 0 lf 1018,5 hPa 0,0 l/m 0 min 0 min 0 W/m 8,4 km/h (2 Bft) 95,74 %
15.01.2016 23:34 1,9 C 2,2 C 1,1 C 91 % 0 lf 1018,6 hPa 0,0 l/m 0 min 0 min 0 W/m 6,3 km/h (2 Bft) 93,48 %
15.01.2016 23:36 1,9 C 2,2 C 1,1 C 91 % 0 lf 1018,6 hPa 0,0 l/m 0 min 0 min 0 W/m 6,3 km/h (2 Bft) 95,74 %
15.01.2016 23:38 1,9 C 2,2 C 1,1 C 91 % 0 lf 1018,6 hPa 0,0 l/m 0 min 0 min 0 W/m 4,2 km/h (1 Bft) 93,62 %
15.01.2016 23:40 1,9 C 2,2 C 1,1 C 91 % 0 lf 1018,6 hPa 0,0 l/m 0 min 0 min 0 W/m 8,4 km/h (2 Bft) 95,74 %
15.01.2016 23:42 1,9 C 2,2 C 1,1 C 91 % 0 lf 1018,6 hPa 0,0 l/m 0 min 0 min 0 W/m 10,5 km/h (2 Bft) 95,74 %
15.01.2016 23:44 1,9 C 2,2 C 1,1 C 91 % 0 lf 1018,6 hPa 0,0 l/m 0 min 0 min 0 W/m 10,5 km/h (2 Bft) 95,74 %
15.01.2016 23:46 1,9 C 2,2 C 1,1 C 91 % 0 lf 1018,7 hPa 0,0 l/m 0 min 0 min 0 W/m 8,4 km/h (2 Bft) 95,65 %
15.01.2016 23:48 1,9 C 2,2 C 1,1 C 91 % 0 lf 1018,7 hPa 0,0 l/m 0 min 0 min 0 W/m 10,5 km/h (2 Bft) 93,62 %
15.01.2016 23:50 1,9 C 2,2 C 1,1 C 91 % 0 lf 1018,7 hPa 0,0 l/m 0 min 0 min 0 W/m 6,3 km/h (2 Bft) 93,62 %
15.01.2016 23:52 1,9 C 2,2 C 1,1 C 91 % 0 lf 1018,7 hPa 0,0 l/m 0 min 0 min 0 W/m 8,4 km/h (2 Bft) 95,74 %
15.01.2016 23:54 1,9 C 2,2 C 1,1 C 91 % 0 lf 1018,7 hPa 0,0 l/m 0 min 0 min 0 W/m 8,4 km/h (2 Bft) 93,62 %
15.01.2016 23:56 1,9 C 2,2 C 1,1 C 91 % 0 lf 1018,8 hPa 0,0 l/m 0 min 0 min 0 W/m 10,5 km/h (2 Bft) 93,62 %
15.01.2016 23:58 1,9 C 2,2 C 1,1 C 91 % 0 lf 1018,8 hPa 0,0 l/m 0 min 0 min 0 W/m 8,4 km/h (2 Bft) 95,65 %
_ Min-Zeit 02:18 01:44 02:02 00:48 00:00 01:00 - - - - 23:38 23:16
Minimum _ 1,4 C 1,1 C 0,0 C 85 % 0 lf 999,5 hPa - - - - 4,2 km/h (1 Bft) 85,11 %
_ Max-Zeit 13:48 14:48 13:20 04:08 01:18 23:56 01:30 14:44 01:04 14:46 01:32 00:00
Maximum _ 3,3 C 8,3 C 2,8 C 96 % 15 lf 1018,8 hPa 0,2 l/m 2 min 2 min 177 W/m 60,7 km/h
W-SW (7 Bft)
100,00 %
Durchschnitt _ 2,6 C 2,8 C 1,5 C 92 % 3 lf 1007,8 hPa #0,6 l/m #34 min. #2:34 h 38 W/m 20,4 km/h (4 Bft) 96,15 %
© 2016 W. Hausmann